GFSFLT1_925_spd_000.txt.gz
Wind_Speed
9 8 7 7 7 10 13 10 5 3 2 3 4 5 4 5 6 7 9 11 12 14 17 19 19 19 21 22 22 23 23 23
5 2 3 4 6 9 10 8 4 2 1 4 5 7 7 6 7 10 12 12 14 16 18 19 20 21 22 23 25 27 27 26
10 10 9 6 8 8 7 6 6 4 3 4 4 7 7 8 10 13 14 17 18 17 18 19 20 22 22 22 23 25 27 27
11 13 13 11 10 8 8 10 11 11 8 6 6 6 9 10 15 16 18 20 19 18 18 18 18 19 22 23 23 25 28 28
9 8 9 9 11 13 13 12 10 9 9 8 9 10 11 12 13 15 20 18 19 19 19 18 18 18 20 22 23 24 26 29
9 10 12 13 12 12 10 9 9 8 7 9 9 10 10 12 16 19 20 19 19 19 18 17 16 15 16 16 16 16 19 24
10 11 10 12 11 9 7 7 8 9 10 10 10 11 14 18 20 23 22 24 22 20 17 13 10 10 10 8 7 8 8 8
6 7 7 7 7 7 6 8 9 12 12 8 8 12 17 19 22 23 26 25 22 20 14 11 9 7 5 4 4 4 5 6
6 4 5 5 6 8 7 6 8 8 6 10 13 15 17 21 22 24 25 23 19 13 10 9 9 8 8 8 6 10 10 8
5 5 6 6 6 5 6 8 10 12 12 13 14 16 19 19 21 21 20 18 14 11 10 9 6 4 5 5 5 7 10 10
5 9 7 7 9 9 10 11 11 11 12 12 14 16 16 15 17 18 17 13 11 10 7 6 6 7 9 11 12 9 9 10
10 15 15 13 10 8 10 10 9 10 11 13 15 15 12 13 15 14 13 12 11 9 9 9 10 12 16 11 12 13 12 11
11 13 13 10 7 9 9 8 10 9 12 14 15 12 13 14 14 13 13 13 11 10 11 12 16 12 14 14 15 15 14 15
13 15 13 10 10 9 9 9 9 11 13 12 12 12 14 14 14 13 13 12 11 12 14 14 14 17 18 16 14 16 18 19
12 12 11 8 8 8 9 8 8 11 10 12 13 13 11 11 10 10 11 13 15 17 18 19 18 17 17 18 17 19 19 18
12 11 13 16 14 12 10 10 11 9 8 12 8 7 8 11 13 14 15 15 16 16 17 16 17 18 16 15 17 17 17 18
12 13 17 14 14 16 11 13 11 6 9 5 6 9 11 12 13 15 17 17 15 16 16 17 18 16 13 12 14 18 21 22
12 14 17 17 19 14 16 16 9 7 8 6 8 10 12 13 15 17 17 17 17 18 17 16 15 16 16 19 19 21 23 24
14 17 20 22 20 17 16 13 10 10 10 10 10 11 11 14 16 16 17 18 18 17 16 17 19 19 17 17 20 22 22 23

GFSFLT1_925_spd_003.txt.gz
Wind_Speed
14 9 9 9 7 7 12 12 8 6 5 3 5 5 6 7 7 6 7 9 9 12 15 17 19 22 22 23 23 25 26 26
11 4 3 3 2 8 10 13 6 4 5 5 6 7 9 7 8 7 10 9 13 14 16 18 18 21 22 23 24 25 24 25
7 7 6 3 4 6 8 7 4 2 0 4 4 5 7 9 8 12 12 12 14 15 15 18 18 20 21 23 23 24 25 24
11 14 13 11 9 8 9 9 8 8 5 5 8 8 9 12 15 17 17 20 19 18 17 18 19 20 21 22 22 24 25 25
9 12 13 13 13 13 11 9 8 9 10 7 10 10 12 14 16 19 20 20 20 19 19 19 19 21 21 22 23 23 25 25
9 11 12 12 11 10 8 6 7 7 6 6 9 13 20 26 26 20 19 19 19 20 20 20 22 21 20 20 19 18 19 21
9 9 9 9 8 7 6 6 3 2 2 8 14 16 14 16 17 18 18 20 21 20 21 19 20 20 17 17 17 15 9 13
4 4 6 5 4 4 6 7 10 12 14 12 10 11 14 16 18 18 21 22 22 21 20 19 19 18 19 16 12 8 6 5
4 4 5 5 5 8 11 12 14 13 11 12 14 15 16 17 18 20 21 21 22 21 21 20 21 19 17 12 9 10 8 10
3 2 4 10 13 12 11 13 15 13 12 14 13 14 16 16 16 17 20 22 24 23 22 22 19 15 13 13 12 13 14 15
4 9 11 13 16 16 12 12 13 14 15 13 13 16 16 16 18 21 22 22 24 24 21 18 16 13 13 16 20 21 18 17
10 14 14 15 16 14 13 14 11 12 13 14 14 15 16 17 19 19 20 20 21 19 16 14 13 14 18 18 17 18 17 18
12 16 14 17 18 19 16 12 13 12 11 14 16 15 17 18 17 17 17 18 17 17 17 18 19 16 15 16 19 19 20 20
14 18 21 25 18 14 16 16 14 11 12 14 15 15 17 15 15 15 15 15 17 18 19 19 20 20 20 20 20 20 20 22
11 16 22 21 19 15 16 16 14 15 14 14 16 15 13 13 13 15 17 18 20 21 20 21 20 21 22 22 17 20 24 26
14 16 19 18 16 16 18 14 16 16 16 16 16 12 13 15 15 17 18 19 19 19 19 20 20 21 15 13 15 20 24 26
16 19 19 20 18 20 20 16 17 17 17 17 15 15 14 15 15 17 19 19 19 20 21 22 20 21 16 15 16 20 26 27
17 16 17 20 21 22 24 19 20 15 19 18 17 14 15 15 16 18 18 19 20 21 22 21 20 21 16 20 21 22 25 27
14 18 20 23 25 25 25 21 25 22 19 19 17 15 16 16 17 19 19 21 21 22 21 19 21 23 20 19 18 24 26 27

GFSFLT1_925_spd_006.txt.gz
Wind_Speed
19 19 15 5 3 3 10 15 18 11 12 4 2 4 5 2 7 5 10 12 9 13 17 19 21 21 22 22 24 26 28 28
24 17 13 9 10 6 22 19 12 5 4 4 9 11 11 10 9 11 12 12 13 18 22 20 21 22 22 23 25 28 28 26
17 15 13 16 18 21 14 14 10 9 8 10 9 8 5 8 12 17 16 20 22 27 22 20 17 19 21 23 24 26 26 26
11 17 18 19 21 19 19 17 14 12 11 11 11 10 10 13 15 18 23 30 28 20 17 19 18 17 20 24 24 23 20 24
12 18 16 18 19 18 15 12 10 9 9 3 4 1 4 8 11 21 21 13 17 17 19 20 21 17 20 22 19 21 20 20
11 14 15 15 13 11 8 5 5 3 2 0 3 9 14 15 11 12 14 12 18 20 19 20 19 22 22 24 19 18 12 11
10 12 15 12 9 7 5 5 4 5 6 5 12 9 10 12 13 13 16 18 19 18 20 21 19 19 21 19 13 14 13 10
4 7 10 7 4 4 6 14 17 15 10 7 9 9 13 13 14 15 18 19 16 20 21 21 20 18 13 13 12 9 10 10
6 7 6 7 9 11 11 10 16 18 14 12 11 13 16 16 16 16 15 15 18 20 19 20 15 14 14 13 11 10 10 11
3 5 7 1 5 10 10 8 11 15 13 11 11 13 15 15 12 11 14 13 15 20 22 20 19 16 14 14 15 17 17 22
4 10 12 13 18 19 17 15 13 12 14 14 12 19 12 11 13 13 12 17 21 20 19 20 20 18 16 20 20 18 18 19
4 15 20 20 21 18 12 12 14 16 15 15 16 13 12 13 13 13 15 16 18 20 20 20 20 20 19 17 19 17 17 20
13 17 18 18 17 18 17 16 15 14 15 15 17 15 15 17 16 15 16 16 16 18 20 20 21 20 20 20 21 20 21 19
9 12 15 19 21 19 19 18 13 9 14 14 16 14 15 15 17 15 13 16 18 19 20 21 21 21 21 21 20 16 19 21
10 13 16 18 18 19 15 19 11 16 17 14 13 12 10 12 14 14 16 18 19 20 19 19 21 22 22 14 14 18 20 21
12 12 16 16 17 17 19 19 21 17 17 14 16 15 11 12 9 12 16 18 17 17 20 21 22 21 11 16 16 17 19 22
13 16 16 16 18 19 23 23 24 11 18 20 20 22 14 9 11 13 16 17 17 19 19 20 19 16 16 17 21 23 21 22
13 14 15 17 19 23 23 26 29 25 23 19 12 10 11 9 12 13 18 17 19 19 20 18 14 15 13 20 20 22 19 23
13 15 17 17 22 22 25 27 29 33 30 16 14 11 10 15 7 10 18 18 19 20 16 14 15 15 22 26 21 19 21 22

GFSFLT1_925_spd_012.txt.gz
Wind_Speed
26 21 24 25 26 27 20 18 10 10 10 11 9 10 16 14 13 10 7 5 6 10 14 14 9 9 11 15 18 21 24 25
29 31 27 25 20 15 10 10 13 9 14 15 12 13 12 12 9 8 10 12 15 14 12 10 9 10 12 15 17 20 22 24
26 31 33 29 26 19 13 15 14 18 16 14 8 5 5 6 5 7 7 8 9 9 10 11 13 15 18 20 19 19 20 17
16 24 30 27 22 19 19 18 15 14 11 6 5 3 4 7 9 5 6 5 6 8 11 14 16 17 17 16 18 18 15 16
17 21 25 23 19 16 14 13 10 6 5 5 5 4 6 7 2 2 4 9 12 12 13 14 15 16 18 17 16 16 14 12
11 20 23 19 17 14 10 7 4 2 1 2 1 3 3 2 3 4 10 11 9 12 17 18 18 16 16 16 17 15 14 13
13 17 15 14 11 9 7 7 9 6 1 1 3 2 6 5 4 7 6 5 10 17 15 16 19 19 18 17 16 16 16 16
7 10 10 7 7 7 7 11 14 10 8 10 11 9 7 7 9 8 7 9 7 6 13 15 15 16 16 17 18 20 23 20
5 10 16 19 19 21 19 18 17 14 11 11 12 12 4 4 6 7 5 5 2 8 9 11 13 14 14 14 13 14 16 16
10 16 21 23 22 20 15 12 9 9 10 12 13 8 3 9 12 12 8 5 4 5 11 12 13 13 12 13 15 14 15 16
10 18 20 18 15 12 10 8 7 8 10 14 15 12 12 17 16 14 11 8 6 7 8 7 8 10 10 11 14 15 14 13
7 14 15 11 10 10 9 8 9 9 15 16 16 16 16 18 16 13 12 9 6 5 5 5 8 8 9 10 12 10 3 6
8 11 10 7 8 11 11 14 16 16 19 18 19 16 17 17 13 12 11 10 5 7 13 8 8 10 13 12 12 9 7 8
4 7 8 11 9 10 11 15 17 19 22 22 21 24 28 24 13 6 3 4 8 24 19 9 12 12 13 13 7 6 9 13
5 10 9 8 5 8 12 13 16 20 21 22 22 22 19 13 10 12 15 14 14 21 13 12 14 12 12 9 9 11 14 19
5 4 7 2 4 10 10 13 16 17 16 16 15 18 19 15 18 20 14 17 17 13 10 16 13 11 9 10 12 18 21 20
3 6 7 3 6 7 10 12 13 14 13 11 14 16 13 16 15 14 19 18 5 13 15 9 3 8 8 15 19 18 18 18
6 4 1 4 5 6 9 12 13 10 5 9 15 14 15 16 14 13 17 12 14 13 1 2 5 9 11 15 15 15 16 17
3 2 4 3 3 8 11 12 12 8 6 11 12 12 14 15 13 14 12 6 15 4 2 6 9 11 11 11 14 15 15 17

GFSFLT1_925_spd_015.txt.gz
Wind_Speed
12 18 17 19 21 22 14 9 5 3 2 6 12 18 19 15 13 9 3 2 6 10 11 12 10 11 14 18 20 22 23 23
19 21 21 22 21 15 9 9 8 4 18 15 14 15 10 10 6 5 9 7 7 8 9 9 12 15 17 19 21 23 24 22
18 26 26 23 19 15 16 16 14 14 12 7 6 7 6 6 5 6 4 6 6 7 9 11 12 16 19 19 18 19 18 20
9 17 24 21 19 19 19 18 16 13 10 6 3 2 1 3 2 1 3 3 5 7 10 10 11 12 12 14 15 15 15 17
9 13 20 21 18 16 13 11 7 7 5 5 4 4 4 3 1 5 4 3 6 10 12 16 18 15 14 13 13 14 13 13
8 13 20 17 14 11 9 6 3 2 2 2 3 4 3 4 5 6 5 7 9 13 23 23 9 11 14 15 14 13 12 13
10 16 14 10 9 9 10 10 9 3 1 1 4 8 7 4 4 5 9 17 21 22 13 5 10 13 14 12 13 12 12 12
7 11 12 14 14 13 13 11 13 11 9 10 9 8 9 11 11 12 17 19 19 15 6 5 10 9 9 9 9 9 11 13
7 16 20 21 20 15 13 11 10 8 8 10 11 12 9 11 13 16 18 21 18 13 8 7 6 7 7 8 9 10 10 12
8 17 20 17 14 10 8 8 6 7 9 11 11 13 14 16 17 19 19 17 12 8 9 10 10 7 9 8 10 12 13 14
7 14 13 10 8 8 7 8 6 7 8 12 14 16 17 19 21 25 22 15 10 6 8 11 14 13 9 9 11 11 14 15
7 12 10 6 5 5 6 5 5 5 7 10 12 15 18 22 22 22 13 11 8 10 8 12 19 13 9 11 13 15 14 11
8 10 8 5 3 5 7 7 7 7 9 12 13 13 16 20 19 14 14 17 23 18 15 16 18 15 11 14 14 13 13 11
6 5 4 4 6 5 5 5 6 8 10 13 16 19 18 16 17 18 19 22 22 18 19 22 15 14 14 15 13 12 11 14
4 6 4 5 5 3 5 3 5 9 13 16 16 14 14 15 17 18 21 19 18 17 21 17 12 19 15 12 10 12 15 20
4 3 2 3 3 5 2 3 7 11 11 11 11 10 10 14 19 19 18 19 16 19 9 10 19 13 8 8 12 18 20 21
2 2 4 3 4 4 2 6 10 10 11 11 11 11 13 14 16 15 14 18 15 9 15 15 4 4 8 12 16 17 18 21
3 4 4 6 8 5 6 11 12 13 14 14 11 12 13 15 17 15 16 14 11 9 6 2 4 7 10 12 13 15 17 18
5 7 7 8 6 5 11 14 16 16 14 11 11 15 16 18 17 16 12 8 12 4 3 2 6 9 10 11 13 15 17 21

GFSFLT1_925_spd_021.txt.gz
Wind_Speed
7 10 11 13 16 21 25 20 14 4 12 8 6 9 12 10 7 7 6 1 3 2 4 4 5 8 9 12 12 9 7 10
8 11 14 18 19 22 20 15 8 7 12 16 17 14 8 6 7 3 1 2 4 5 6 8 12 16 16 14 9 10 12 14
10 12 14 16 17 17 13 9 13 15 20 19 11 13 8 7 4 2 3 4 6 9 11 15 19 13 11 9 10 10 10 11
10 11 12 14 13 15 16 17 21 21 16 10 9 6 6 2 1 4 6 9 9 11 17 18 16 10 6 7 8 8 10 8
13 15 15 19 22 21 22 19 16 13 9 5 5 4 3 4 5 7 7 8 11 13 14 15 11 6 5 4 6 7 7 8
12 13 13 13 21 19 17 16 13 10 10 11 12 13 11 7 5 4 6 10 13 14 15 15 12 7 5 5 5 3 3 4
11 11 10 11 14 17 17 17 19 17 14 14 14 12 8 5 5 6 10 12 16 20 19 16 9 4 4 4 5 5 3 5
9 11 12 12 13 16 18 18 17 14 13 12 9 8 7 7 8 10 14 15 16 17 20 14 7 5 15 8 8 7 7 8
8 9 10 11 13 15 16 14 14 12 10 8 5 5 6 7 10 12 15 17 20 23 19 14 12 14 12 10 11 11 9 10
9 10 12 14 13 15 14 13 12 8 5 2 2 4 3 5 9 12 14 16 19 20 15 15 15 13 9 11 14 14 11 11
10 13 14 11 11 14 13 12 12 7 4 3 4 3 5 8 9 10 14 18 23 21 18 16 15 12 12 14 16 14 12 13
11 14 11 10 12 12 10 10 7 7 5 3 2 6 8 8 9 10 13 18 19 19 17 17 15 14 14 16 15 12 13 14
15 14 12 10 9 9 9 8 7 4 3 1 5 7 10 9 9 10 14 19 20 19 17 13 11 14 16 15 9 9 13 10
12 12 11 11 12 11 7 6 3 5 2 5 9 10 10 11 10 13 17 21 20 17 15 12 16 15 11 8 9 13 6 8
11 10 10 9 10 10 7 6 9 5 6 10 12 13 13 12 12 15 18 20 18 15 13 14 12 8 10 7 6 5 9 12
11 9 10 9 11 11 9 12 8 6 10 14 15 15 14 12 13 16 19 19 16 15 11 10 11 4 3 3 6 9 11 14
11 10 12 12 15 14 13 10 6 7 11 14 15 14 12 12 15 18 18 17 15 12 8 8 1 2 3 8 10 11 13 14
12 13 16 14 12 13 11 7 5 10 12 11 12 11 12 14 17 17 15 14 14 10 9 3 1 2 8 10 13 10 12 15
12 15 12 9 10 11 8 4 7 8 9 11 12 12 14 16 17 14 14 16 11 7 4 4 3 5 9 11 13 10 12 14

GFSFLT1_925_spd_024.txt.gz
Wind_Speed
6 7 10 13 16 18 20 21 20 17 13 15 9 7 9 8 7 5 4 3 3 4 4 5 6 8 10 12 13 14 16 17
7 9 11 14 15 19 20 20 15 12 12 12 11 11 8 6 5 5 4 3 4 5 4 6 9 11 11 10 11 14 16 16
9 11 12 15 18 19 18 16 12 12 11 12 11 10 7 7 6 4 4 4 4 4 5 8 10 10 10 10 11 14 17 14
10 13 15 16 18 18 16 14 14 14 14 10 8 8 7 5 2 2 3 2 2 4 7 9 10 12 13 11 11 10 13 14
12 15 15 15 13 14 15 16 15 11 8 7 5 3 4 3 3 2 0 2 5 8 10 12 13 13 12 11 9 9 10 14
13 14 14 14 14 16 15 14 12 11 10 10 9 9 7 4 2 3 5 7 10 12 13 14 14 12 10 7 7 11 12 12
14 14 15 15 14 14 14 14 14 13 12 11 10 9 6 3 3 6 8 11 13 15 15 17 16 13 10 8 12 11 13 12
13 16 16 16 15 14 15 15 15 12 10 9 8 7 6 4 6 8 11 14 16 18 18 19 18 15 11 13 12 14 14 12
15 17 17 16 16 15 15 14 13 11 9 7 6 4 3 4 6 9 11 12 13 16 18 18 16 14 13 15 15 13 13 13
15 16 16 16 17 16 14 12 12 10 8 7 6 4 2 4 6 8 8 10 13 16 18 17 16 15 17 17 18 17 17 14
14 16 16 17 16 15 13 10 11 6 8 6 6 2 1 4 6 8 8 11 15 18 19 18 17 17 20 19 20 19 16 15
14 16 17 17 16 15 11 10 7 8 7 5 5 2 3 5 7 8 9 12 16 18 18 18 17 17 17 18 20 19 14 14
15 18 19 19 17 15 11 10 10 7 9 7 4 3 6 8 10 10 10 13 17 18 17 16 15 15 16 21 15 10 10 14
15 19 20 19 18 14 14 14 9 12 9 8 5 8 10 11 11 11 12 15 17 17 16 16 16 16 15 8 9 9 11 11
17 17 21 19 18 17 17 13 13 11 10 7 9 10 11 12 12 12 13 15 17 16 15 15 13 12 12 8 7 9 9 12
18 18 19 19 18 18 16 13 12 11 9 8 10 10 11 12 11 12 14 16 15 15 14 13 11 8 5 4 7 10 13 15
18 18 20 20 20 20 15 13 12 10 8 9 9 9 10 11 11 13 16 16 15 14 14 11 9 5 4 6 9 12 14 15
18 18 20 19 20 16 13 14 11 8 8 7 8 9 10 11 12 15 16 15 14 14 12 9 8 5 6 8 12 12 13 13
17 19 18 17 14 13 14 12 9 7 6 8 9 9 10 12 14 16 15 14 14 14 11 8 8 6 7 9 13 10 11 12

GFSFLT1_925_spd_027.txt.gz
Wind_Speed
11 11 13 14 17 17 18 22 19 24 16 9 10 7 4 5 4 3 4 4 3 1 1 3 6 9 12 12 14 16 19 21
11 11 11 12 15 16 19 22 19 16 9 12 10 10 10 8 6 6 5 4 3 2 3 7 9 11 12 13 15 18 20 20
12 13 13 14 17 19 17 17 18 11 11 15 14 13 10 9 7 6 4 3 3 3 5 7 9 12 15 15 16 18 18 17
12 14 12 14 17 18 16 17 17 15 15 14 13 10 8 8 6 4 2 2 2 4 6 10 12 14 16 16 16 15 18 18
13 16 18 16 17 17 16 16 16 15 14 12 12 11 11 5 3 2 1 1 4 7 9 11 13 16 16 16 15 13 16 18
15 17 21 20 16 15 16 16 15 13 9 9 8 4 5 4 1 2 4 6 6 9 12 13 15 17 17 16 15 15 18 17
16 18 17 19 19 17 17 16 14 14 12 10 9 8 5 3 3 6 6 8 9 10 13 15 17 18 18 16 14 18 14 16
16 16 19 19 19 18 18 17 16 14 13 12 11 9 8 5 5 4 6 9 10 10 12 15 17 17 18 16 15 16 18 20
15 17 18 19 19 19 18 17 16 14 13 11 9 6 4 4 2 5 7 7 8 10 12 16 17 17 17 13 16 19 18 18
16 19 18 19 19 19 19 18 16 14 12 9 9 7 4 2 5 6 6 6 8 11 14 16 17 18 19 17 19 21 20 21
16 19 19 19 20 20 19 18 16 14 11 10 9 7 6 5 6 7 6 7 9 12 15 16 17 18 18 19 19 22 23 19
16 18 20 20 20 21 20 18 17 14 12 12 10 9 8 7 7 7 9 9 11 13 15 16 16 16 16 16 18 19 22 21
17 19 20 21 22 22 21 19 17 15 12 10 11 11 9 9 9 10 11 12 13 14 16 15 16 17 14 15 19 17 12 14
17 19 20 22 23 24 21 19 17 13 12 12 15 12 10 10 11 12 13 14 15 15 16 16 16 15 16 10 12 12 12 13
16 16 20 22 23 23 21 21 15 13 13 13 14 11 10 11 13 14 14 14 15 17 16 16 15 14 13 11 9 9 10 12
16 16 17 23 23 23 23 20 16 15 14 16 14 10 10 12 13 13 14 13 16 16 16 16 11 12 9 6 7 8 12 16
16 17 20 23 24 22 22 19 17 15 15 16 11 9 11 12 12 12 14 15 16 16 16 16 10 10 8 8 8 10 14 16
15 17 20 23 22 22 23 19 16 17 15 13 10 9 11 11 12 13 15 16 15 16 16 12 11 7 9 8 9 10 14 13
13 16 19 21 19 21 19 16 15 14 13 10 8 9 10 11 12 15 16 17 16 16 15 10 10 8 11 9 10 11 12 11

GFSFLT1_925_spd_030.txt.gz
Wind_Speed
17 16 19 20 30 28 22 19 19 28 21 9 4 2 1 4 8 7 10 8 8 6 4 4 5 5 7 11 11 12 14 18
13 12 17 17 30 28 26 21 18 19 13 6 6 6 9 10 10 9 8 7 7 4 5 5 5 6 8 11 12 13 15 15
13 12 13 23 24 26 27 22 18 17 12 10 9 12 11 11 9 9 7 6 5 4 3 2 5 8 11 11 14 16 12 14
13 14 14 22 21 23 22 20 20 18 13 14 15 14 15 13 10 11 9 6 3 2 3 5 7 9 12 14 15 13 11 15
13 15 13 13 15 17 21 22 21 17 18 19 19 15 14 12 15 15 8 4 1 3 6 9 8 10 12 13 13 14 14 14
15 19 18 18 17 18 17 18 19 19 16 18 16 17 15 12 10 7 3 4 4 4 5 5 9 12 14 17 17 15 12 13
11 26 23 19 19 19 20 22 18 16 11 10 9 14 13 13 9 3 3 1 4 5 6 9 11 12 15 17 17 13 11 13
12 16 24 23 22 19 21 19 18 16 14 12 12 13 11 8 5 2 3 4 5 6 7 9 11 14 16 18 18 13 15 15
12 13 15 22 22 20 20 20 20 18 16 16 15 13 10 8 7 3 2 4 4 6 7 9 13 15 17 18 19 16 17 17
13 16 19 20 21 22 22 22 22 21 19 17 13 12 12 10 6 3 5 5 5 4 8 10 13 15 16 18 21 19 19 19
13 15 19 21 22 22 20 22 22 22 20 16 15 13 12 7 5 8 7 7 7 7 9 11 13 15 15 16 11 16 20 19
13 15 20 19 20 21 20 21 22 22 18 17 17 16 11 10 11 8 9 9 8 9 10 11 15 15 16 12 16 17 17 18
14 17 20 20 20 21 22 21 21 21 18 18 16 15 15 16 10 9 9 10 11 10 10 11 15 15 12 15 8 11 11 12
14 16 17 20 21 21 22 21 18 20 17 16 16 18 16 11 11 7 9 11 11 10 10 13 16 14 10 10 10 10 11 10
12 13 17 22 22 22 22 22 19 18 14 15 19 15 19 9 4 7 10 10 10 9 12 15 16 12 9 10 7 9 10 10
10 9 10 19 21 21 21 22 20 16 15 18 15 18 4 8 6 8 10 10 11 12 15 15 12 8 7 6 6 7 10 14
5 6 7 15 20 22 21 21 22 17 16 18 9 7 11 3 6 8 10 13 14 13 13 14 15 7 11 8 7 6 10 14
7 4 6 11 16 22 22 22 19 17 15 12 18 6 5 5 6 9 11 14 14 14 15 13 12 10 9 9 7 7 10 12
4 6 9 8 7 18 17 17 16 14 14 7 10 1 4 7 6 10 13 14 14 14 12 11 8 10 11 10 9 7 7 11

GFSFLT1_925_spd_033.txt.gz
Wind_Speed
28 34 33 37 40 35 33 32 29 27 23 17 9 8 7 9 14 15 14 15 10 6 7 7 3 0 4 8 8 6 11 11
25 27 35 38 40 37 35 35 30 28 24 15 12 13 15 17 17 16 12 12 10 12 11 7 4 3 6 6 8 11 11 12
13 18 32 36 37 37 35 33 30 28 23 13 9 15 16 19 18 16 13 14 9 6 4 1 3 4 4 9 13 12 7 10
9 21 27 28 32 36 34 31 25 28 24 14 15 16 17 20 18 17 15 11 9 5 5 1 3 4 8 11 10 8 8 11
12 18 23 27 30 34 32 29 25 24 23 21 25 26 27 21 21 19 14 10 8 3 4 3 4 4 7 9 13 15 16 11
15 16 25 29 28 28 25 25 22 25 23 26 29 28 19 21 21 17 13 11 8 9 6 2 2 6 9 11 13 15 13 6
11 24 28 29 27 27 25 24 25 24 23 27 29 28 27 27 22 17 12 13 9 5 1 4 7 10 11 13 14 15 6 9
15 13 18 24 24 22 21 25 23 23 21 21 26 27 25 22 17 14 14 10 6 3 4 6 8 10 10 12 13 14 17 16
14 16 20 23 25 24 24 23 27 23 22 22 23 23 22 16 15 14 11 7 4 0 5 4 7 10 12 14 14 15 13 10
13 18 21 23 25 23 24 29 26 24 21 20 19 16 14 13 15 12 8 7 7 6 5 4 7 9 13 13 14 9 10 15
9 15 22 26 26 24 20 23 26 23 22 22 19 15 14 14 10 7 7 5 7 8 7 6 6 9 12 14 6 10 13 12
11 13 26 32 30 27 25 21 26 26 25 22 19 16 14 10 8 6 8 6 12 11 8 8 8 8 12 7 7 10 10 13
14 18 26 29 33 33 31 23 28 30 26 22 17 15 13 11 9 12 10 15 13 12 11 10 6 8 11 10 6 6 9 8
14 15 22 26 29 33 35 28 30 30 26 23 18 15 13 13 10 12 14 8 9 10 9 6 7 11 12 7 4 3 4 6
15 15 17 28 31 31 34 33 34 31 27 23 17 13 14 8 14 8 5 8 6 5 8 10 14 15 12 11 8 6 5 5
6 11 11 21 23 25 28 28 35 35 30 23 16 11 4 12 3 5 10 8 8 12 14 17 16 12 13 13 11 11 9 10
8 5 9 17 22 28 28 31 36 38 31 21 14 16 8 4 7 5 9 14 13 14 15 16 15 13 13 13 12 11 8 8
7 6 4 16 24 31 29 29 30 26 19 15 10 3 3 7 2 7 10 12 15 17 18 17 16 14 13 13 12 10 8 7
8 10 10 4 21 24 28 31 29 23 15 13 12 13 9 5 8 6 13 13 14 17 19 18 14 13 12 13 12 11 8 7

GFSFLT1_925_spd_036.txt.gz
Wind_Speed
29 33 32 36 37 38 32 32 34 32 29 25 22 17 11 9 11 15 16 16 15 12 11 9 5 4 3 5 6 6 7 4
31 32 34 34 36 39 36 35 34 33 30 25 19 15 12 14 16 16 17 16 14 10 10 9 4 1 3 2 3 6 3 5
23 30 32 34 38 39 39 38 36 33 31 26 18 14 14 18 18 16 14 13 14 12 9 5 1 2 2 4 6 5 1 5
17 27 32 32 30 39 41 41 38 34 29 20 12 14 17 17 19 19 18 15 12 10 7 4 2 2 2 2 3 5 7 5
16 25 27 34 36 40 37 38 35 32 27 20 22 26 24 26 25 21 19 14 12 10 9 9 9 6 3 2 3 5 7 10
17 25 34 34 37 41 39 35 32 31 32 25 26 26 28 28 26 25 21 18 14 12 14 14 10 5 1 2 5 8 8 5
9 19 25 27 32 34 37 34 34 30 33 30 28 32 31 30 29 27 22 19 17 15 12 7 5 1 5 7 7 7 7 8
13 14 21 25 28 29 34 34 32 30 29 30 30 37 35 34 33 27 22 22 17 14 9 2 3 5 8 9 10 8 8 7
14 17 21 26 28 33 31 31 30 28 27 28 32 33 31 31 29 24 24 20 16 8 2 3 2 5 7 9 9 10 6 5
12 15 21 24 26 31 34 26 25 24 24 26 27 28 27 23 18 17 15 13 9 8 5 3 9 8 7 8 10 9 7 9
9 14 20 27 29 30 26 23 28 28 26 27 28 25 20 17 17 14 11 9 5 5 7 15 12 6 7 9 11 8 10 11
14 16 24 30 31 29 28 29 33 31 29 29 28 25 21 20 17 10 8 8 4 10 15 16 10 8 7 10 9 10 10 8
16 21 26 27 32 34 35 37 39 38 35 33 30 26 21 19 11 9 10 6 12 17 16 13 11 8 9 12 12 11 10 10
10 11 19 26 30 33 38 41 42 39 37 34 30 25 23 18 16 16 12 12 16 12 11 11 10 11 12 13 12 12 11 10
11 10 15 23 28 30 25 29 36 38 38 37 36 32 26 22 18 12 9 8 4 6 10 11 13 12 12 12 14 15 13 11
4 5 6 16 19 20 20 28 33 37 34 27 24 22 19 18 11 7 7 3 2 6 8 11 15 17 17 16 18 17 14 11
6 5 9 15 20 24 26 28 27 29 26 22 18 16 8 11 10 2 3 4 5 6 10 14 16 19 16 18 19 18 15 12
7 6 5 14 23 29 29 29 27 27 26 22 21 20 17 10 10 4 6 2 7 11 16 17 19 21 20 19 18 17 15 13
6 8 8 1 12 14 20 24 25 25 20 18 16 17 17 12 10 9 1 7 13 18 16 18 21 21 17 17 18 16 15 14

GFSFLT1_925_spd_039.txt.gz
Wind_Speed
22 24 27 28 28 26 27 25 25 26 26 27 26 23 20 16 12 12 14 15 16 17 15 13 10 6 3 1 2 4 5 3
23 26 27 26 26 28 29 29 29 30 32 30 27 24 19 15 13 14 15 17 18 17 14 12 8 3 3 1 2 3 4 4
19 23 25 29 33 33 34 33 34 35 35 32 29 25 18 15 16 16 18 20 17 14 12 10 7 5 4 2 3 4 2 2
14 23 28 29 33 39 41 38 38 40 36 30 23 20 14 18 20 20 20 19 17 14 11 8 7 3 3 4 4 3 3 3
16 23 27 32 39 39 39 39 41 39 36 32 29 27 22 23 28 25 22 19 16 13 10 9 6 3 3 3 4 4 3 4
18 24 32 31 29 33 36 35 38 39 36 34 27 27 28 24 26 25 23 20 15 13 10 7 5 4 5 9 7 6 4 2
14 23 23 24 27 30 34 36 38 40 38 35 31 29 28 23 27 25 23 18 15 13 11 9 7 4 6 6 5 6 4 3
12 13 22 25 31 32 33 32 34 39 38 38 32 29 27 28 30 30 26 21 18 17 13 9 3 5 6 5 5 5 5 5
15 19 23 24 26 29 27 30 34 38 35 31 32 27 29 28 31 32 27 24 21 17 12 6 9 1 7 8 9 9 7 5
13 17 23 23 26 29 33 34 36 33 30 29 28 28 27 30 27 27 24 21 19 17 10 6 3 9 8 11 11 10 10 8
8 11 20 24 27 30 34 40 40 33 30 30 30 31 30 24 24 25 22 22 19 16 16 11 12 13 15 15 12 11 12 9
11 13 21 25 26 31 34 36 34 33 32 32 30 29 30 30 28 27 27 27 27 24 17 15 15 17 17 14 11 12 13 12
11 14 18 21 27 32 35 38 38 38 34 32 32 33 31 29 30 33 30 26 24 16 15 15 15 16 14 13 11 14 16 15
5 6 14 21 24 27 34 36 33 32 35 35 35 34 34 31 28 25 23 18 13 12 11 11 15 14 12 12 14 18 19 18
4 5 8 15 20 21 26 28 29 33 35 35 33 30 26 24 21 20 20 9 7 5 5 6 11 10 12 15 19 20 20 18
7 6 6 12 11 14 21 25 27 29 31 30 29 26 24 22 19 15 10 12 7 3 2 5 11 13 20 24 21 19 20 16
4 4 8 14 21 22 21 22 25 27 28 26 24 21 21 19 18 15 12 10 5 1 8 15 18 18 15 15 17 21 20 19
7 7 7 4 11 17 19 20 22 24 24 23 23 22 22 20 16 14 10 4 6 14 14 16 13 14 17 17 18 22 22 19
6 7 8 8 6 9 13 15 20 22 22 21 23 26 24 22 19 12 3 10 14 13 13 12 16 17 14 14 16 19 20 19

GFSFLT1_925_spd_042.txt.gz
Wind_Speed
20 23 25 23 25 24 23 21 19 21 19 20 21 21 21 18 17 15 15 16 17 18 17 16 16 12 9 6 3 4 4 2
19 24 25 27 26 24 27 27 25 25 24 24 24 26 23 19 16 14 14 17 18 18 18 18 14 10 7 3 4 3 1 2
15 22 26 29 32 32 30 31 30 29 30 29 28 28 25 21 16 15 16 17 19 20 18 16 12 8 4 4 3 3 6 3
10 18 26 28 33 36 35 34 33 32 31 30 26 26 21 18 18 19 19 20 20 19 17 15 11 6 6 5 5 5 4 1
12 17 20 28 30 32 33 33 33 33 33 34 34 32 23 25 25 23 22 21 21 19 17 13 10 9 9 7 3 2 4 4
15 19 27 29 30 33 32 31 32 33 35 36 37 31 29 24 25 24 24 24 22 19 16 15 15 13 9 2 4 6 7 2
14 20 20 23 25 30 32 33 34 35 35 37 36 33 28 22 26 29 27 24 20 18 18 19 16 10 5 3 5 7 6 2
11 12 18 23 28 29 31 33 33 35 37 36 36 33 26 28 29 32 29 28 26 26 25 23 16 5 4 5 5 3 4 3
13 15 19 22 26 28 30 29 29 34 38 38 36 35 31 31 30 32 34 34 31 28 25 19 9 8 6 4 6 4 4 5
12 12 20 22 24 30 31 32 32 34 37 37 37 37 35 33 31 32 36 32 29 28 25 23 16 12 5 5 7 8 8 8
6 8 17 23 28 31 32 34 36 36 36 38 36 35 35 36 33 34 36 33 32 35 29 21 10 11 8 5 10 11 13 15
7 9 17 22 25 30 33 32 31 34 36 35 33 32 32 32 30 33 36 36 35 30 25 10 12 13 12 9 16 15 17 18
6 7 13 19 25 26 29 32 33 33 34 32 32 31 31 27 26 29 31 32 30 23 12 16 15 9 10 18 19 17 17 20
6 7 13 17 17 17 22 30 32 31 30 30 30 27 24 26 27 28 26 25 22 15 20 13 12 12 15 19 19 18 19 21
6 6 7 10 15 18 25 27 28 27 24 22 24 24 26 26 22 19 20 18 17 15 9 5 4 6 13 19 17 21 24 23
3 3 4 6 9 10 15 18 17 18 18 19 20 23 21 18 18 20 17 17 13 15 13 10 12 13 15 17 20 27 25 25
8 7 4 3 6 12 14 17 18 19 17 18 19 19 17 20 22 22 21 18 16 8 8 12 13 16 15 17 20 21 22 26
8 8 10 16 14 4 5 7 9 12 15 16 20 20 21 22 21 19 16 10 2 9 12 14 13 15 15 17 18 19 21 24
8 10 15 17 15 15 13 10 12 16 18 18 20 23 24 22 19 14 6 0 7 11 11 11 13 15 14 12 15 16 18 19

GFSFLT1_925_spd_045.txt.gz
Wind_Speed
20 21 20 21 22 25 25 24 21 19 18 17 19 20 19 18 17 16 16 16 17 17 18 18 17 15 13 10 6 5 4 2
18 21 23 23 23 25 26 25 25 23 22 20 18 18 22 20 19 18 17 18 19 19 19 19 18 15 12 9 7 5 2 2
16 19 22 26 26 26 24 26 25 26 24 23 17 20 21 21 20 18 17 17 19 20 21 21 20 17 13 10 7 5 2 3
13 19 24 24 27 28 26 26 26 26 24 22 21 21 19 18 21 21 21 20 21 22 23 22 19 16 13 10 6 4 3 7
15 21 24 27 26 27 28 27 27 27 28 24 26 21 19 19 25 23 22 22 22 23 23 21 19 16 14 11 7 5 5 7
19 23 26 26 25 30 29 27 28 27 29 27 26 23 20 19 25 22 23 24 24 24 23 22 21 19 16 11 8 7 9 8
18 23 21 23 23 28 29 28 27 27 28 31 30 28 27 24 22 23 25 23 25 26 26 25 23 22 18 11 9 8 6 9
17 18 22 23 25 25 26 26 26 28 29 32 33 32 30 27 25 27 27 26 28 30 30 28 28 23 15 13 9 7 10 9
18 19 23 25 25 26 25 25 25 26 29 32 29 31 32 31 30 29 29 34 32 30 32 31 29 24 19 9 10 11 10 9
15 16 22 23 23 26 28 26 25 23 27 26 25 27 31 35 31 30 30 33 35 32 33 32 29 21 13 10 14 12 10 8
9 12 19 20 19 19 20 23 23 22 23 23 25 25 30 32 31 32 32 33 36 36 34 33 28 19 15 14 12 7 9 10
7 8 12 14 14 17 19 20 19 19 19 20 21 25 27 28 30 31 31 31 32 34 34 35 26 18 18 15 7 8 14 15
5 6 9 11 13 14 15 14 18 19 20 23 24 25 26 27 29 27 27 30 32 37 36 30 20 18 15 11 7 14 17 18
6 5 5 6 6 7 9 12 16 17 18 20 18 18 20 20 19 19 21 27 28 30 29 21 16 16 14 12 17 18 19 20
2 1 3 4 7 9 9 9 12 14 12 10 8 9 9 11 13 14 17 20 24 27 22 18 17 11 14 15 14 15 17 19
5 3 3 4 6 6 6 7 9 10 9 7 5 5 6 8 11 14 16 19 20 17 15 13 7 13 15 16 15 17 20 22
12 12 11 7 2 3 2 1 1 2 2 3 5 10 13 16 16 18 19 18 18 14 5 7 15 15 18 21 21 21 21 23
10 10 11 11 10 10 10 9 8 8 9 10 12 15 18 20 22 22 21 17 6 4 11 11 13 17 16 19 19 20 19 20
9 11 13 14 14 15 16 16 16 16 15 14 15 18 22 23 23 18 11 3 4 10 15 15 14 17 15 17 15 16 18 21

GFSFLT1_925_spd_048.txt.gz
Wind_Speed
20 22 24 26 26 27 26 23 19 18 16 16 17 19 18 15 13 12 12 11 13 13 13 14 15 13 12 10 9 6 5 4
22 23 25 27 27 27 28 26 21 18 19 18 18 19 18 18 15 13 13 14 14 14 14 15 15 14 12 11 9 8 6 4
22 25 26 27 28 29 28 27 23 22 20 19 18 19 19 18 16 15 15 15 15 16 15 17 16 14 13 12 10 8 6 4
18 24 27 28 30 30 30 29 25 23 21 19 17 16 15 19 17 15 19 20 19 17 18 19 18 16 15 13 11 10 8 5
17 22 26 28 29 28 29 28 27 25 23 22 23 22 21 20 19 18 17 17 18 17 18 22 20 17 16 14 12 11 8 6
20 23 27 29 28 29 29 28 27 26 26 25 22 22 19 17 19 18 19 18 17 17 19 21 22 19 17 17 16 13 10 7
19 25 24 26 27 28 29 29 28 27 26 26 26 24 24 21 20 20 19 17 17 19 19 20 20 19 20 19 17 15 13 13
20 19 25 26 27 28 27 28 29 27 28 27 28 27 24 24 22 22 20 20 25 28 26 23 22 21 20 19 19 14 12 12
21 20 24 26 27 26 26 28 27 28 28 28 27 26 23 25 24 24 25 27 32 29 29 26 22 22 25 24 17 11 9 12
16 18 25 24 23 26 27 25 24 25 25 23 22 21 24 23 22 24 29 28 30 26 26 27 27 23 24 22 14 13 12 13
7 9 15 19 20 20 21 22 23 23 22 22 21 21 21 22 20 23 29 27 26 24 30 29 24 26 25 17 13 13 12 12
5 6 8 11 13 16 17 18 19 19 19 18 17 17 18 19 19 19 20 21 23 28 26 24 26 29 24 16 16 11 12 15
4 6 9 11 12 12 13 14 15 15 14 13 13 12 12 13 14 14 18 19 20 20 24 29 25 28 20 16 12 12 17 17
4 6 7 9 10 10 9 9 9 9 8 8 7 6 6 8 10 11 12 14 16 19 23 16 19 20 17 16 18 21 24 18
5 5 5 7 8 8 8 7 6 6 5 5 5 5 5 6 6 7 7 8 11 15 16 17 18 13 11 12 18 22 16 18
7 7 6 7 7 8 7 8 7 7 7 7 7 7 7 6 7 7 9 10 12 14 17 15 12 10 13 18 20 18 17 19
7 7 7 8 8 10 11 11 10 11 11 10 11 11 11 11 12 13 13 15 15 14 13 11 9 14 16 17 16 18 17 20
11 11 11 13 13 13 14 13 13 14 15 14 13 14 14 15 15 16 16 16 16 11 7 8 12 14 14 15 15 16 19 20
10 10 13 14 15 17 17 17 17 16 16 15 15 16 17 17 16 15 12 11 5 3 8 10 10 11 11 13 15 16 18 21

GFSFLT1_925_spd_051.txt.gz
Wind_Speed
22 23 26 28 29 29 29 28 30 26 21 18 16 16 20 20 18 16 15 15 16 15 14 15 15 13 12 11 10 9 9 7
24 25 27 27 26 27 28 29 30 25 22 20 20 21 20 20 18 17 17 16 15 16 16 15 15 13 13 12 11 10 9 7
21 25 27 28 28 28 27 27 25 24 20 20 19 19 20 20 19 19 17 17 16 17 16 15 15 14 14 15 14 12 12 10
20 24 26 27 28 29 29 29 26 24 22 21 18 17 18 21 21 20 18 17 17 17 16 16 17 17 18 17 17 16 14 11
20 24 28 30 29 29 29 29 28 26 24 21 21 20 21 21 21 20 18 19 20 19 18 18 18 19 19 21 18 18 16 13
22 24 31 31 31 31 31 30 30 29 28 27 24 24 22 20 20 20 21 19 19 19 19 19 18 19 20 20 18 18 15 13
20 27 29 30 31 31 31 31 32 32 31 30 28 25 23 21 22 19 18 19 19 20 21 21 20 21 20 20 19 17 15 13
20 22 25 30 31 32 32 33 34 33 30 30 29 28 25 24 22 21 20 21 21 23 24 25 26 24 21 20 20 19 18 14
21 21 26 30 31 33 33 33 33 29 25 22 26 30 28 27 23 21 23 25 25 24 29 31 29 27 23 22 22 20 14 10
19 23 27 28 28 28 30 29 28 26 30 36 36 25 25 22 22 21 23 21 27 29 27 29 24 21 23 25 24 18 13 11
10 14 24 26 25 28 28 28 27 27 27 28 26 25 21 21 19 20 16 13 21 21 20 25 24 29 29 24 24 18 15 16
6 7 12 16 22 25 24 25 25 23 23 24 22 21 19 18 19 19 23 17 17 19 19 20 25 24 21 20 19 16 15 11
6 6 8 11 15 17 18 20 20 19 18 17 18 19 16 18 19 18 17 17 19 21 23 21 20 23 22 18 18 13 13 13
8 9 9 12 14 16 17 17 17 16 16 15 11 13 11 9 11 12 11 14 15 14 15 18 18 20 16 17 16 13 11 16
9 10 10 12 13 13 14 13 12 11 10 9 11 10 8 7 7 7 7 8 9 10 14 16 15 15 18 16 10 13 17 20
10 10 11 14 14 14 14 13 13 13 12 12 11 11 11 10 10 11 11 10 11 11 12 12 14 16 13 13 12 14 18 18
10 11 11 11 14 15 15 14 14 14 15 14 14 14 14 13 13 13 13 12 12 13 12 12 11 8 9 11 12 11 12 16
9 9 10 12 14 16 16 16 17 17 17 17 16 16 16 15 15 15 14 13 12 11 10 8 5 6 9 9 9 10 12 15
12 11 15 16 18 19 19 19 19 18 18 17 17 17 17 16 15 14 13 11 9 5 2 3 3 5 6 6 9 10 14 17

GFSFLT1_925_spd_054.txt.gz
Wind_Speed
23 25 26 27 28 28 26 30 30 35 35 27 24 27 25 23 24 24 23 23 22 20 18 16 18 16 16 16 13 13 10 11
24 26 29 28 28 27 31 30 30 33 28 25 24 26 27 26 24 25 22 22 22 23 19 18 19 18 18 17 17 12 14 10
23 27 27 29 32 32 30 29 33 33 25 25 25 23 22 26 25 22 22 23 22 20 20 20 20 20 20 19 19 16 16 15
19 25 30 29 34 35 35 35 35 33 30 30 28 26 26 28 29 29 26 25 22 21 21 20 22 22 22 23 24 20 20 19
20 23 29 35 33 35 34 34 34 36 32 25 26 23 22 23 26 25 28 25 24 22 23 24 21 24 22 25 25 25 21 18
23 23 31 33 32 36 36 34 35 35 35 32 29 25 25 24 23 25 28 29 26 27 24 24 24 22 22 23 26 25 23 25
22 32 32 32 35 32 35 33 34 32 35 34 29 25 24 21 24 26 26 26 27 24 28 24 27 26 26 23 23 25 26 16
18 22 25 32 36 37 35 36 33 34 31 28 32 27 24 30 25 27 25 24 26 27 27 27 26 29 28 28 26 23 21 22
17 19 28 33 36 37 37 36 34 32 33 30 30 36 33 28 26 26 28 27 28 27 29 30 30 29 26 23 23 24 22 19
20 19 25 33 36 38 38 34 33 33 37 42 40 35 27 32 32 26 24 20 21 25 30 31 30 27 25 26 26 26 23 17
7 12 22 27 35 37 38 36 31 34 37 37 36 34 35 30 30 24 23 21 23 19 22 24 21 23 23 26 23 20 18 17
4 4 6 27 29 32 33 34 32 27 34 38 33 34 27 28 25 19 19 19 14 12 16 17 17 23 23 24 22 20 18 15
4 3 1 2 16 29 31 31 29 29 30 29 30 29 25 22 18 20 19 17 14 11 13 17 20 19 21 22 20 15 15 12
7 4 4 4 5 6 20 21 21 21 18 24 24 22 19 18 17 15 15 14 12 14 17 18 17 18 19 18 16 16 15 15
10 9 7 9 8 8 11 12 12 11 16 23 27 23 19 15 12 10 9 9 9 9 9 9 11 14 16 15 15 15 17 16
8 11 9 11 13 14 16 17 19 24 25 22 21 18 14 12 10 9 9 8 9 9 10 10 11 11 12 13 15 14 12 13
8 11 14 12 15 15 19 18 15 17 20 21 20 17 17 18 16 15 15 13 13 13 11 11 11 9 9 10 7 9 10 12
3 5 9 18 18 24 18 19 18 19 19 19 19 21 20 20 19 19 17 17 16 15 13 10 10 7 5 5 7 9 8 11
6 7 9 18 20 19 20 19 20 21 21 21 20 21 21 20 20 20 17 16 15 13 9 5 3 3 3 3 2 4 7 11

GFSFLT1_925_spd_057.txt.gz
Wind_Speed
22 26 25 26 26 29 32 28 35 34 29 28 29 31 24 32 24 19 20 21 20 19 21 20 21 18 19 18 18 17 15 17
25 27 27 29 25 27 34 30 33 37 33 26 27 28 28 23 23 24 25 25 23 25 24 22 21 24 23 21 20 19 18 15
22 26 27 28 30 27 33 32 33 34 32 28 25 25 27 27 29 27 29 30 29 29 27 27 26 24 24 25 26 23 19 20
19 25 29 30 31 32 34 33 35 33 32 27 26 27 26 30 32 32 27 31 28 29 28 29 28 28 28 28 30 27 25 23
21 24 29 32 34 34 35 33 36 38 34 30 31 27 26 29 32 36 35 34 31 31 30 27 28 31 29 29 29 29 28 29
23 25 35 36 36 37 36 37 38 40 39 35 33 29 31 33 35 35 34 37 35 35 32 30 30 31 31 29 30 29 31 23
24 35 36 35 34 37 38 38 40 42 42 43 38 33 35 35 34 34 36 35 37 35 34 33 33 32 30 32 28 29 31 29
22 23 27 34 37 39 40 40 40 43 44 44 41 41 38 38 38 35 34 33 35 39 36 35 33 31 29 29 28 27 27 27
24 25 32 37 41 39 42 40 38 42 41 43 45 44 41 37 39 31 32 35 36 40 39 36 33 32 30 28 26 23 22 24
24 25 34 37 41 46 44 45 43 41 44 41 46 49 42 40 37 37 31 23 25 34 38 37 33 32 26 26 26 24 24 23
14 22 31 38 43 47 49 47 48 51 44 45 42 43 43 41 35 33 28 24 28 29 27 29 28 25 24 24 24 24 26 22
8 7 24 37 41 43 44 45 41 40 42 40 43 42 40 34 29 24 23 20 19 18 15 19 23 23 21 23 23 24 23 20
6 3 4 17 37 40 39 37 40 39 42 29 29 28 19 23 25 23 24 22 18 14 14 15 17 19 20 22 24 23 20 17
7 6 4 3 14 28 31 32 29 34 20 34 34 40 35 29 26 23 19 18 16 15 13 14 16 19 20 19 17 16 14 13
8 7 5 3 7 13 21 21 30 27 26 27 29 29 30 28 22 19 16 15 15 14 15 18 18 16 14 14 13 13 13 13
10 9 8 8 13 18 28 24 25 27 27 28 30 31 28 24 20 17 16 15 14 15 15 14 14 13 14 14 13 12 12 9
12 12 11 11 18 19 20 24 27 30 31 29 28 25 23 21 20 18 16 16 16 17 18 17 15 13 13 12 12 10 9 8
9 11 12 15 22 29 25 25 25 27 28 26 25 26 24 21 22 21 21 22 22 20 19 19 16 14 13 12 10 8 7 5
8 9 11 21 25 25 28 27 28 27 24 26 28 29 29 27 26 25 25 24 23 21 18 16 15 12 10 9 7 5 3 1

GFSFLT1_925_spd_060.txt.gz
Wind_Speed
17 15 13 15 19 21 29 35 36 34 32 32 29 30 30 21 29 27 20 24 19 19 20 17 21 20 24 25 24 21 19 17
20 21 22 20 23 24 27 28 27 30 32 27 22 24 28 27 30 36 18 24 22 21 20 21 20 21 24 25 24 22 20 17
18 22 25 26 27 28 29 31 32 31 29 31 27 28 30 31 30 29 25 23 23 25 24 25 25 23 24 27 27 25 23 21
16 22 27 29 28 31 33 34 39 40 38 36 29 28 29 32 34 33 29 23 27 29 28 30 28 27 27 30 30 29 28 24
17 22 27 32 33 32 35 35 38 40 41 34 32 29 27 31 29 33 32 30 31 32 34 34 33 32 33 33 33 33 32 27
21 24 33 34 33 33 36 36 35 38 40 34 33 30 29 31 32 34 38 38 35 34 38 36 35 34 36 36 35 35 36 29
22 34 33 33 33 32 33 36 33 37 38 38 35 34 32 31 35 35 39 39 39 41 39 40 37 36 36 37 37 34 36 34
20 21 27 33 36 37 36 38 36 40 42 43 41 41 39 34 37 34 31 37 41 44 43 45 43 40 38 37 35 34 31 32
22 24 31 36 40 43 42 42 41 42 44 45 43 40 38 42 39 33 38 43 43 44 42 41 40 35 36 31 34 31 30 26
23 22 33 36 38 43 47 45 45 44 46 46 46 44 45 38 34 38 42 42 42 36 39 37 36 32 32 35 32 28 26 24
21 21 30 36 39 43 45 47 47 51 50 48 48 46 43 37 32 34 41 40 28 25 26 29 33 32 37 31 27 26 24 21
20 19 28 33 36 37 42 44 45 44 44 44 37 35 33 29 32 32 28 35 33 25 23 27 28 26 27 27 25 24 22 23
17 17 24 28 31 34 39 41 43 45 33 27 24 23 29 36 35 31 30 23 24 22 17 16 19 22 24 23 23 21 22 21
8 8 12 21 29 34 37 39 39 29 30 31 34 39 41 41 39 35 38 30 21 23 20 19 21 22 23 23 21 19 18 17
8 8 9 13 21 31 32 31 32 34 33 36 42 40 37 34 35 36 34 30 27 24 19 21 22 22 20 19 17 17 17 16
8 9 8 8 12 17 26 28 35 38 38 36 35 31 29 31 30 27 26 30 27 22 22 21 21 20 20 19 17 18 16 14
12 9 8 9 14 20 21 23 27 31 29 26 29 30 31 30 29 29 29 26 22 21 20 20 20 18 17 17 17 16 15 14
12 11 12 16 20 27 26 31 32 31 29 29 30 31 31 32 31 28 26 25 23 21 21 20 19 18 17 17 17 16 12 8
12 13 10 19 23 23 27 28 30 29 28 27 30 32 31 30 29 28 26 25 25 25 23 22 22 21 19 17 15 13 12 9

GFSFLT1_925_spd_063.txt.gz
Wind_Speed
13 11 10 12 14 19 21 25 28 29 32 29 23 28 28 25 26 27 27 24 24 22 21 19 17 18 18 18 19 21 20 18
14 13 13 14 16 20 22 22 28 31 30 29 25 31 27 26 26 26 25 20 19 18 19 20 17 20 20 21 22 24 22 19
11 19 18 18 18 19 22 26 28 32 30 25 21 28 21 25 25 29 31 23 19 19 18 20 19 19 20 22 25 26 26 20
11 15 21 21 20 23 21 25 29 30 25 24 20 28 23 24 25 26 28 22 19 20 21 21 20 22 23 23 25 29 27 25
10 13 18 23 25 22 22 28 30 32 31 30 27 21 21 24 26 34 31 28 25 21 24 26 26 25 26 27 27 33 32 27
15 16 24 26 26 27 27 27 31 32 35 32 33 27 26 25 29 26 33 33 31 34 27 27 30 30 31 33 34 34 36 29
15 18 19 23 28 30 31 31 32 36 36 38 36 32 28 28 29 32 33 36 41 40 33 32 31 32 36 37 38 37 38 38
15 16 19 25 28 30 31 33 33 35 36 38 40 39 37 35 35 33 32 37 42 43 38 37 37 38 38 39 38 37 35 35
18 20 25 29 32 34 35 35 37 37 40 40 41 39 38 38 36 34 35 39 41 41 40 39 40 41 41 40 30 26 30 33
20 19 28 30 33 38 41 37 39 40 42 42 42 42 39 37 33 30 37 39 41 41 38 37 37 39 39 35 29 30 37 33
17 17 26 32 37 40 37 39 40 42 38 39 39 38 34 31 28 31 35 39 39 40 40 37 39 38 35 34 35 38 34 30
17 18 28 33 31 30 36 37 36 38 38 33 32 30 29 28 31 34 37 36 37 30 26 26 32 28 32 36 33 32 29 27
17 17 22 26 31 32 37 38 38 38 34 31 29 27 26 32 40 42 41 37 34 26 28 29 31 30 33 28 27 27 28 25
9 10 16 23 30 33 35 37 41 35 32 33 32 33 31 41 44 47 35 41 39 35 34 30 30 28 26 22 23 23 22 22
8 9 13 21 28 32 34 36 36 36 36 39 40 51 56 56 48 44 38 37 42 35 33 34 31 28 25 22 22 21 18 16
10 10 11 13 22 26 29 31 31 37 38 39 44 48 41 36 34 35 37 34 34 31 31 30 27 25 24 22 20 19 19 18
11 10 8 10 18 24 29 29 34 40 38 41 41 36 32 34 34 34 33 30 29 29 32 29 27 26 22 20 21 21 20 20
10 10 15 13 21 29 27 30 32 37 36 33 31 31 31 32 32 30 29 29 28 28 27 26 23 19 18 18 19 21 20 19
12 9 10 20 16 21 19 20 24 25 25 26 26 26 24 26 26 26 27 27 27 25 23 22 21 20 20 20 21 22 19 15

GFSFLT1_925_spd_066.txt.gz
Wind_Speed
12 12 11 12 13 14 18 21 24 26 26 31 27 27 29 33 36 38 36 35 33 32 31 23 16 18 17 17 14 14 14 15
15 15 15 14 13 15 17 21 23 28 26 27 27 25 28 32 33 30 29 32 29 27 22 23 22 20 21 18 17 16 19 16
10 16 17 19 18 19 19 20 24 25 24 24 23 25 21 28 29 26 27 29 24 24 23 21 21 21 20 20 20 20 21 19
13 14 18 18 19 21 22 23 27 27 28 24 17 23 20 20 24 25 26 24 27 24 19 22 23 16 19 19 21 22 22 22
11 15 19 22 21 22 23 24 27 29 30 28 25 23 22 21 27 28 26 22 19 20 20 18 18 17 18 20 20 23 24 22
14 15 22 23 23 27 25 26 28 30 31 31 29 27 26 27 25 26 30 28 31 27 23 19 20 21 24 24 25 27 27 28
11 17 20 23 25 28 25 26 32 32 34 34 35 33 34 32 28 28 30 31 33 31 29 26 26 24 25 28 29 30 31 31
12 14 15 21 28 32 27 28 30 36 36 38 38 37 36 36 35 31 31 34 35 39 36 36 33 31 29 28 30 29 32 26
15 16 19 23 28 31 32 31 32 36 39 39 40 38 35 35 37 33 33 32 34 35 37 38 38 35 33 32 33 33 27 21
17 15 21 23 27 34 37 31 30 32 35 34 34 34 33 31 32 32 35 34 33 34 34 34 35 34 33 32 32 31 22 25
11 13 19 26 29 28 31 34 34 33 30 30 29 31 33 33 28 30 32 33 34 35 36 35 35 34 33 32 33 29 28 32
14 14 21 25 21 25 29 33 33 33 32 32 31 31 30 31 30 29 29 31 36 37 37 36 40 37 37 31 31 30 31 34
9 11 13 17 22 24 29 30 32 34 34 33 34 38 37 38 37 40 43 42 42 42 43 43 40 30 27 27 29 32 27 30
6 8 12 16 22 25 28 31 33 31 33 35 33 37 39 40 45 49 40 42 42 40 36 38 40 35 31 26 27 33 30 28
7 7 12 15 22 26 27 29 30 33 35 36 37 37 43 44 47 42 35 33 33 33 36 39 38 35 31 28 24 27 28 26
8 9 11 13 18 22 25 27 31 34 34 35 41 41 40 41 37 40 36 33 34 33 36 38 37 32 29 23 23 27 25 22
10 11 10 10 17 23 25 27 33 36 36 40 36 36 36 38 35 33 33 33 34 33 35 37 36 31 25 21 25 24 23 22
9 11 13 12 20 26 26 29 28 34 35 31 31 33 34 34 31 30 33 33 33 32 34 32 29 27 23 24 22 23 23 23
12 10 10 21 26 27 28 25 29 29 28 27 29 31 29 31 32 31 30 30 29 27 26 24 25 19 18 20 21 23 22 21

GFSFLT1_925_spd_069.txt.gz
Wind_Speed
13 12 11 10 12 12 16 18 22 27 31 31 32 31 30 34 33 37 35 37 38 37 35 33 29 25 25 23 19 18 16 15
16 15 12 11 12 13 16 21 20 23 25 21 29 28 32 32 34 31 33 38 39 36 34 31 28 29 28 22 18 18 15 15
14 17 16 13 14 15 16 19 23 26 25 22 21 24 27 31 35 24 37 43 39 35 31 31 30 28 22 17 20 16 15 16
14 17 20 18 16 18 18 19 24 26 26 26 22 24 19 22 30 27 35 35 30 30 29 28 26 26 25 24 22 19 13 18
16 18 21 23 22 18 19 20 20 20 26 26 24 25 19 19 28 32 28 29 24 26 28 25 25 24 22 17 20 18 18 13
20 20 27 26 24 22 21 21 23 21 23 25 24 23 20 26 27 34 29 34 30 31 29 24 26 22 21 21 22 20 20 19
18 23 23 26 25 24 22 21 21 23 25 24 25 24 24 24 25 31 34 38 36 34 31 34 31 27 26 25 22 21 20 23
16 19 21 26 29 29 28 27 26 25 26 27 27 26 24 26 31 27 30 33 35 35 33 29 29 29 28 23 21 20 23 24
18 21 25 29 31 31 30 29 28 28 29 28 27 28 29 27 27 26 28 28 29 37 32 32 32 32 30 27 25 26 26 28
16 17 25 29 32 36 36 31 29 28 31 30 29 28 29 29 28 30 30 35 35 33 31 31 31 30 30 28 27 27 25 22
12 15 23 28 30 32 35 34 34 32 33 33 33 34 33 33 32 34 33 35 35 34 37 36 34 33 32 29 27 25 22 24
11 12 17 21 24 29 33 35 35 34 35 34 35 37 40 41 39 39 42 40 40 38 36 34 34 31 31 29 28 25 27 28
8 10 14 19 23 26 32 32 35 36 38 38 37 36 40 41 44 48 49 51 48 46 43 41 36 32 32 31 30 32 29 30
6 10 12 16 22 24 26 29 33 32 33 36 36 36 35 38 41 38 34 31 30 31 33 37 37 36 36 35 32 36 34 37
5 8 11 15 21 24 26 27 29 31 34 35 36 38 40 40 38 36 34 33 32 30 32 35 31 28 34 36 34 37 34 34
7 9 10 12 18 22 23 25 29 31 33 35 40 36 36 35 34 34 32 30 31 29 30 30 27 30 32 33 34 32 31 29
11 9 10 11 17 22 23 25 29 32 33 35 29 31 32 36 36 35 33 31 30 27 27 28 29 32 35 33 35 31 28 28
12 13 12 11 19 23 25 30 27 32 31 29 29 30 31 31 30 30 32 31 28 28 28 29 30 32 33 32 29 29 29 28
12 11 11 19 21 21 25 23 28 29 28 29 28 29 29 28 28 28 27 25 27 27 31 31 31 30 27 25 28 28 27 25

GFSFLT1_925_spd_072.txt.gz
Wind_Speed
13 12 10 10 11 10 13 13 22 27 27 26 29 30 31 27 29 35 36 28 34 25 25 23 24 21 20 19 17 14 14 13
14 14 13 12 12 13 13 17 23 29 28 27 27 27 31 32 36 29 35 24 28 26 25 23 22 22 23 19 16 14 12 13
16 17 16 16 15 16 15 19 25 27 27 26 24 31 25 32 37 35 32 23 25 24 27 28 25 19 19 17 17 14 11 15
17 18 19 18 18 18 18 18 22 21 21 21 16 22 22 23 28 38 40 32 28 26 34 34 31 21 17 19 19 17 13 14
17 18 22 22 21 19 19 21 22 20 22 23 21 24 19 21 27 29 37 29 30 31 31 31 32 29 19 21 24 17 13 14
20 20 24 23 22 23 22 21 23 21 22 22 24 24 24 20 23 31 33 29 26 31 32 31 34 31 32 23 23 17 16 16
17 21 23 23 23 23 24 24 25 24 25 25 26 25 24 23 26 26 30 35 38 31 31 34 35 27 27 26 20 22 22 18
17 20 21 26 28 28 27 27 28 29 29 28 28 28 28 27 32 32 31 31 39 40 39 39 31 29 32 26 29 29 21 24
17 21 23 28 30 32 31 30 30 32 31 31 30 30 30 29 31 34 33 34 38 42 45 44 41 37 39 36 32 19 21 21
16 19 25 28 31 33 34 33 32 33 33 32 33 33 33 31 32 32 34 35 35 37 38 37 40 39 33 33 25 24 24 24
12 16 22 29 29 29 30 31 33 32 33 34 34 36 37 35 34 35 36 35 35 35 35 37 36 35 32 30 29 29 30 29
8 12 20 26 28 29 30 31 32 33 34 34 34 35 36 37 38 38 40 37 37 38 36 35 37 36 34 31 32 32 32 31
3 11 16 22 27 29 32 32 33 33 33 34 35 33 34 36 39 40 39 40 38 39 38 37 37 38 36 35 34 33 32 32
2 8 13 16 24 28 30 32 34 32 31 33 33 34 36 38 38 37 36 37 37 36 37 38 39 39 39 39 36 33 31 29
11 6 11 15 21 25 28 30 32 33 33 34 35 37 39 37 36 36 37 37 37 37 38 38 37 36 34 32 34 35 38 40
11 10 9 10 17 22 26 28 31 33 34 35 38 36 34 33 33 34 35 35 36 36 36 37 36 35 35 35 32 33 38 38
14 11 11 11 14 19 23 27 31 32 34 36 33 32 33 34 33 32 33 34 35 34 34 35 34 33 36 38 33 32 35 35
18 16 12 12 17 19 23 27 26 31 33 31 31 30 31 32 31 32 33 34 32 32 32 32 32 32 33 36 33 34 34 34
19 15 13 18 17 18 21 21 26 28 29 29 29 30 30 28 28 30 29 28 30 29 29 30 27 29 33 30 30 34 29 26

GFSFLT1_925_spd_075.txt.gz
Wind_Speed
15 13 10 11 10 12 13 18 18 25 26 25 30 28 30 33 31 28 27 26 29 25 23 21 22 19 19 19 19 17 16 15
16 15 13 12 13 13 14 16 21 24 26 26 25 25 30 30 32 31 29 24 26 25 24 22 23 23 22 19 17 17 15 14
15 18 17 16 15 16 16 17 19 24 28 26 27 29 30 29 31 34 35 23 24 23 22 23 24 21 19 19 18 16 16 17
17 17 20 18 18 19 19 18 22 22 24 22 20 22 24 25 27 28 34 30 25 24 22 23 24 22 21 22 20 18 18 16
17 18 20 21 20 19 20 21 22 23 23 24 28 25 17 28 30 28 31 35 26 21 19 22 27 24 23 20 22 21 18 15
18 19 22 22 22 22 22 23 25 26 25 26 29 25 29 22 30 34 30 33 28 21 23 31 34 31 24 22 25 19 21 19
17 21 23 23 23 23 23 25 26 26 27 28 26 29 29 23 28 31 36 29 32 30 28 34 37 32 31 29 27 24 22 18
16 19 19 25 26 25 25 27 28 30 28 29 28 28 28 30 31 32 32 37 35 38 33 33 42 39 37 35 28 28 28 25
15 19 20 26 28 29 27 27 28 30 31 30 29 28 28 29 31 32 34 38 43 40 40 36 41 43 37 31 32 32 30 30
14 17 21 27 29 31 30 29 28 29 31 31 31 32 31 30 30 33 35 38 37 40 43 43 43 43 38 34 36 32 31 33
6 14 17 26 29 29 30 30 29 29 30 31 31 32 33 31 30 33 33 35 37 38 43 43 40 39 38 37 35 35 32 32
1 9 16 23 26 29 30 30 31 31 31 30 30 31 31 31 34 33 34 34 37 37 41 45 44 44 43 40 38 33 33 33
3 4 11 19 25 28 30 31 32 33 31 32 32 30 32 33 34 34 35 34 34 36 35 38 41 44 43 41 39 38 37 37
7 4 7 12 21 26 30 31 33 32 32 33 32 34 34 36 36 34 34 34 35 35 35 36 38 40 40 41 40 39 37 36
15 11 6 9 17 24 28 29 31 31 33 33 34 35 37 36 34 35 35 36 35 36 36 38 37 37 38 38 38 38 37 37
15 14 10 7 14 20 25 28 30 32 33 33 37 35 34 34 33 35 36 37 37 38 38 39 39 40 40 40 39 39 38 37
16 15 18 11 10 16 21 25 29 31 33 35 34 33 34 35 34 34 34 35 37 36 38 38 37 38 40 42 40 34 35 32
15 17 17 16 14 12 17 23 24 28 31 32 33 33 34 35 34 34 35 36 34 37 36 36 37 37 38 41 41 36 32 33
16 15 16 21 20 20 18 19 23 27 29 31 32 32 33 33 33 35 34 34 35 35 35 35 34 33 33 35 35 36 36 30

GFSFLT1_925_spd_078.txt.gz
Wind_Speed
14 14 14 14 19 18 14 15 15 20 19 21 22 27 27 32 31 34 35 27 28 28 28 22 23 29 27 24 21 20 20 18
18 15 16 16 17 18 17 18 18 21 24 25 25 26 31 28 34 34 34 35 31 34 27 20 22 25 24 22 18 18 20 18
15 18 17 17 19 19 21 19 22 23 24 24 25 28 28 31 31 33 31 29 30 28 25 26 26 23 23 23 22 21 19 21
17 16 18 19 19 20 20 20 23 26 24 24 25 25 23 24 27 32 34 30 28 31 28 30 31 28 29 27 23 22 19 21
18 17 18 22 20 23 21 23 22 26 28 25 26 25 24 25 30 32 36 32 30 30 26 30 32 26 26 28 28 26 24 23
17 19 22 23 23 24 22 24 23 23 28 27 27 24 26 26 26 27 32 36 31 28 28 29 33 26 28 31 30 29 26 23
14 20 24 23 25 24 26 25 25 25 28 28 28 26 26 27 28 29 30 36 40 31 28 35 33 33 31 31 33 31 26 22
13 16 16 22 26 28 25 28 26 28 28 28 31 28 29 31 33 33 31 30 34 40 29 34 35 38 36 33 29 27 24 23
11 15 17 22 26 29 28 29 28 31 32 29 29 30 31 30 34 32 34 36 38 42 40 35 36 37 38 38 34 29 26 27
11 12 16 24 27 30 31 28 29 32 32 32 31 31 29 31 32 35 35 38 39 40 41 41 36 39 40 43 41 33 26 30
4 11 15 24 27 28 30 29 28 28 35 35 32 34 31 29 29 35 34 37 39 41 39 38 35 37 42 44 40 41 34 33
6 2 11 23 25 27 29 30 28 29 32 33 33 33 33 34 34 32 36 34 36 39 43 41 40 37 39 38 38 36 35 35
5 5 3 16 21 25 28 27 28 29 30 32 33 33 34 36 37 37 35 36 36 39 37 42 43 43 39 40 38 38 38 35
8 10 4 5 18 21 26 29 29 27 28 30 31 33 33 35 36 35 35 36 37 37 39 40 42 44 43 43 43 42 40 38
9 9 11 3 13 17 20 24 29 29 27 30 32 34 35 35 33 33 34 37 36 37 40 39 41 41 43 43 43 43 43 42
15 15 16 17 16 14 20 22 25 29 30 29 34 32 31 31 33 34 35 35 36 38 37 40 38 40 41 42 44 43 42 42
14 14 15 16 21 20 13 21 25 27 30 34 31 31 32 34 34 34 35 37 38 38 39 40 39 41 41 45 43 40 39 39
11 12 13 17 24 28 24 20 16 26 30 33 31 31 33 35 35 34 37 38 37 40 39 39 41 42 43 46 47 43 37 37
8 11 14 20 27 32 33 34 27 17 26 29 31 32 34 33 34 37 37 36 37 36 38 38 38 40 40 44 43 46 40 39

GFSFLT1_925_spd_081.txt.gz
Wind_Speed
22 26 25 27 25 22 21 19 22 24 24 22 20 22 26 31 33 39 40 39 36 39 36 33 32 34 32 32 30 28 29 28
24 31 30 31 28 24 22 21 21 24 25 27 25 22 26 31 35 39 39 39 33 39 39 34 33 36 34 36 32 28 29 29
15 24 28 32 32 27 24 21 22 24 26 26 22 27 26 26 34 36 39 35 28 36 34 30 27 33 33 35 30 27 29 25
17 17 25 31 32 32 25 24 26 24 26 25 23 25 23 24 27 32 37 31 30 33 25 27 26 35 30 33 31 28 27 25
19 17 19 28 30 32 27 26 27 25 28 25 28 23 22 22 30 34 37 35 32 29 27 31 36 40 39 34 33 32 32 28
21 20 26 28 36 35 31 28 29 26 29 29 29 23 21 23 26 27 34 33 28 33 31 28 33 33 33 34 34 36 36 33
22 22 27 27 32 36 34 33 26 28 31 29 29 26 25 23 25 28 32 35 31 29 32 29 36 34 31 36 38 36 36 30
19 19 17 25 29 32 33 35 30 29 32 30 31 30 30 28 29 31 29 30 34 33 32 30 34 39 33 33 36 37 33 33
20 20 18 26 30 33 32 32 29 31 29 31 31 29 32 29 31 29 31 31 36 37 38 31 36 40 38 36 36 37 34 33
19 20 18 26 31 34 35 34 29 32 33 30 34 34 30 33 33 34 33 34 34 37 39 36 37 40 41 41 38 35 36 35
10 16 17 27 32 33 33 37 36 32 34 34 30 35 35 30 33 35 33 35 37 37 42 42 39 41 41 42 40 40 38 37
6 10 18 25 27 30 32 30 32 31 34 34 33 32 32 30 33 36 35 34 39 40 40 41 41 40 44 43 41 40 39 38
14 14 8 18 24 27 31 31 31 33 35 35 35 34 35 32 31 35 36 35 39 44 41 39 41 41 42 42 41 39 38 38
14 16 18 12 5 26 27 31 32 32 32 38 35 35 36 38 36 34 31 36 35 39 41 41 40 41 42 42 43 41 41 41
13 13 15 18 20 13 12 26 30 31 33 33 34 36 37 36 36 37 39 38 38 37 41 42 42 43 44 44 42 43 43 43
13 13 12 13 22 24 22 21 23 32 31 31 34 35 36 34 37 38 38 39 40 40 39 40 40 41 45 44 44 43 44 44
11 15 16 15 20 21 23 23 24 12 27 33 30 35 37 39 39 36 36 38 40 38 41 42 41 43 45 46 44 42 42 42
14 14 14 18 20 19 22 22 22 20 16 20 25 29 34 38 36 34 38 39 36 38 38 38 40 43 44 47 50 45 40 41
14 12 18 23 27 31 24 20 21 22 23 22 25 17 27 31 32 36 38 37 37 37 38 37 36 40 42 47 45 50 43 40

GFSFLT1_925_spd_084.txt.gz
Wind_Speed
24 30 34 38 34 30 28 26 21 19 18 18 16 19 20 26 34 38 39 38 38 35 34 36 38 42 38 34 33 30 30 25
24 28 32 34 34 34 31 27 25 25 23 21 17 18 24 23 30 35 36 37 36 33 32 34 39 43 38 31 34 34 29 27
13 23 29 33 34 35 34 29 31 27 27 23 17 18 20 23 27 29 37 35 34 33 35 35 39 35 36 34 36 29 26 31
17 17 26 28 31 34 35 33 30 28 28 23 22 19 17 20 24 28 34 33 33 35 34 38 36 36 36 35 37 33 23 33
18 17 20 29 30 35 34 33 30 29 29 26 26 21 19 17 24 28 34 37 28 31 36 36 36 38 34 36 37 36 33 29
20 21 28 29 33 35 35 28 29 30 30 28 27 22 18 18 21 25 32 38 27 25 32 35 33 35 33 33 35 38 36 35
23 23 24 25 28 32 30 28 29 28 29 30 29 26 22 22 23 27 33 35 31 30 27 31 34 35 40 35 36 36 37 37
19 19 17 24 29 30 31 30 29 30 32 31 31 29 28 28 30 28 26 29 35 34 32 33 31 35 38 43 42 44 42 41
22 23 20 27 30 31 31 32 30 35 33 32 33 32 29 28 32 32 31 32 35 39 32 34 36 35 39 39 42 39 40 40
20 19 18 27 29 33 35 33 31 35 34 32 31 31 30 29 30 32 32 34 33 34 37 37 35 36 36 41 39 41 41 41
17 18 18 27 32 31 31 33 34 36 36 33 31 31 32 30 30 32 31 33 35 34 37 40 39 36 37 41 41 40 41 42
5 12 17 22 24 28 27 29 29 31 35 34 30 30 31 33 32 34 34 35 38 37 39 41 40 41 41 43 41 40 42 41
11 9 9 10 11 21 29 29 29 32 35 33 34 32 32 33 32 35 36 33 37 40 39 42 43 43 44 45 41 37 40 38
20 19 16 12 11 9 8 11 14 17 28 31 30 31 33 34 34 34 35 35 34 35 39 41 41 42 41 44 44 42 43 41
17 16 15 18 20 20 15 5 15 20 24 27 30 33 36 37 35 35 36 37 37 37 38 38 40 42 42 42 42 43 44 44
17 15 13 15 20 20 19 21 18 15 21 25 28 32 34 33 35 38 38 39 42 39 40 41 40 41 42 43 42 41 42 42
16 14 15 16 18 19 19 22 25 18 13 11 15 21 24 29 33 37 37 40 39 37 40 39 41 44 44 45 43 41 40 41
15 15 13 16 17 19 21 22 22 23 22 22 18 15 8 25 28 29 36 39 34 39 39 40 41 43 46 48 49 46 40 41
12 10 16 20 18 21 17 21 23 23 23 21 20 22 19 16 12 23 33 33 34 37 39 40 41 44 45 47 48 49 46 43

GFSFLT1_925_spd_087.txt.gz
Wind_Speed
23 29 32 35 34 31 31 29 25 20 17 13 12 18 19 21 27 31 34 35 37 33 31 33 36 37 38 38 36 28 30 29
16 24 29 30 28 27 26 31 27 23 20 19 15 16 19 17 25 28 34 34 38 34 31 28 33 37 37 35 37 29 25 26
13 22 26 30 31 27 27 27 28 26 21 21 17 17 17 18 22 29 30 35 37 36 36 34 33 34 36 36 36 27 21 27
14 16 25 27 29 30 29 28 27 28 24 21 18 18 14 13 21 24 26 34 36 37 33 31 33 35 34 35 34 30 23 28
14 16 17 29 30 27 30 27 27 25 28 26 25 19 13 14 19 24 23 33 35 35 36 34 32 33 35 34 35 34 31 27
17 19 28 30 29 29 32 31 26 24 25 26 26 20 18 17 21 22 25 26 31 30 32 35 32 38 38 36 34 35 34 31
18 21 22 23 25 26 31 30 27 25 24 26 28 24 22 19 22 24 26 27 26 26 31 33 36 37 38 39 37 39 35 33
15 16 16 24 30 29 30 28 25 28 29 28 29 28 26 24 24 22 23 26 31 27 29 36 37 35 38 35 37 37 30 33
17 22 20 26 31 31 29 29 26 28 29 29 27 28 27 26 25 27 29 26 28 32 29 29 36 39 36 37 39 34 37 32
19 20 18 25 30 33 32 30 27 29 29 27 27 29 27 26 26 26 32 34 31 30 33 33 31 31 35 35 38 37 38 39
12 16 18 26 28 28 29 29 29 28 26 27 26 28 30 29 28 28 27 30 33 34 34 37 34 34 34 33 36 39 40 41
4 7 9 15 17 20 22 25 26 27 28 29 27 27 28 28 27 28 29 29 32 36 36 37 40 37 37 38 37 34 37 38
11 9 10 14 16 16 15 14 14 17 20 22 24 27 28 28 27 28 30 29 30 33 38 39 40 41 41 40 38 34 38 36
16 17 14 10 14 15 16 16 16 17 22 25 25 26 27 28 27 28 31 32 32 32 33 34 34 38 39 44 44 42 40 42
15 16 14 17 21 19 17 11 9 19 22 24 23 24 25 24 26 28 29 34 33 34 36 36 37 37 39 40 41 43 41 41
14 12 13 14 20 22 20 22 23 1 17 19 20 25 25 29 28 30 32 33 36 36 36 38 39 41 42 41 40 40 41 41
14 12 17 15 19 20 21 22 24 22 23 20 3 11 20 25 28 29 29 34 36 34 36 36 37 42 43 47 47 41 40 40
14 14 14 14 19 21 20 20 21 23 21 20 18 14 11 11 5 18 29 33 31 34 36 37 41 42 45 47 49 47 40 41
12 11 17 17 19 20 17 19 21 21 22 22 21 18 15 15 12 11 12 10 21 32 36 38 40 43 47 48 48 48 44 43

GFSFLT1_925_spd_090.txt.gz
Wind_Speed
19 28 30 33 33 32 29 30 28 26 21 16 17 18 18 21 21 21 20 28 30 34 32 34 35 38 36 35 37 31 31 31
18 23 28 29 28 30 30 31 29 25 19 15 15 18 18 14 17 24 23 23 30 31 29 31 34 38 37 35 36 31 26 30
5 16 24 30 29 28 27 28 31 27 24 15 11 18 15 15 15 19 26 32 32 30 27 29 32 34 36 37 33 28 21 31
8 11 21 26 29 32 31 29 31 27 21 18 14 15 12 13 13 18 16 34 35 34 32 30 29 31 34 37 33 30 22 30
8 12 15 25 30 29 29 28 31 26 22 21 21 18 12 11 15 18 23 28 37 41 38 33 34 30 28 36 36 29 30 26
13 16 23 27 22 29 31 28 27 26 26 22 21 19 17 18 16 17 22 24 32 34 36 37 37 34 31 36 37 36 26 30
13 16 17 22 25 24 28 30 26 25 27 23 21 20 21 18 19 20 22 21 25 35 35 36 37 34 36 36 35 34 34 27
10 15 16 25 29 29 27 29 27 28 28 24 23 22 24 24 21 20 21 24 24 30 35 36 37 37 33 36 37 35 32 33
10 16 18 24 32 32 28 29 27 28 27 25 21 26 24 23 23 21 22 21 26 28 28 31 35 36 35 39 40 38 36 40
11 15 17 23 31 35 33 31 25 26 26 24 23 20 25 20 21 23 22 23 27 29 28 31 33 37 39 37 41 37 34 34
13 14 14 20 23 25 26 26 24 24 23 20 21 18 21 21 22 23 23 25 25 27 28 26 27 34 34 36 38 41 38 40
7 10 11 17 21 22 21 22 21 22 22 21 20 21 19 22 21 22 21 22 26 28 30 31 31 31 31 33 36 38 37 37
13 12 12 15 18 19 18 18 18 20 21 22 21 19 21 22 20 20 19 21 22 26 29 32 34 35 35 35 36 34 36 37
17 16 12 10 16 19 18 18 18 19 20 20 19 20 22 24 20 21 22 22 21 21 25 31 33 35 36 38 39 38 38 40
16 15 17 17 22 20 18 16 12 17 18 18 18 21 23 25 24 21 22 24 27 27 27 27 29 31 34 37 38 38 37 39
17 17 16 17 23 22 21 20 20 12 13 15 18 20 20 22 23 26 24 24 27 29 31 33 33 34 35 35 36 38 40 39
15 16 16 16 25 23 21 22 20 23 21 19 18 17 5 9 17 25 27 28 29 30 34 35 36 39 39 39 40 38 37 36
15 15 14 22 29 23 21 17 25 20 22 18 16 14 12 9 6 3 1 4 16 26 30 31 34 36 39 40 42 42 35 35
12 12 17 23 18 13 13 20 23 20 24 23 20 16 14 13 11 10 9 8 7 8 9 13 24 29 29 35 41 44 44 41

GFSFLT1_925_spd_093.txt.gz
Wind_Speed
19 18 18 22 26 27 27 27 28 30 29 24 21 19 18 18 18 22 24 23 31 40 31 43 43 41 34 30 30 23 22 21
19 18 16 18 24 27 29 31 29 32 30 24 20 20 20 19 18 18 20 18 23 34 38 41 38 37 35 33 30 25 18 21
14 14 12 20 24 27 28 33 33 34 28 20 12 16 18 19 14 18 22 23 21 24 30 36 34 31 34 35 31 23 17 25
15 11 16 18 26 31 32 34 34 32 28 19 12 13 12 16 15 16 15 24 22 27 28 31 34 36 37 37 34 26 19 23
17 13 14 23 26 27 26 28 34 31 31 23 19 19 15 12 12 15 20 25 26 26 27 28 33 32 32 36 36 29 23 24
17 16 22 22 25 29 28 27 27 28 32 25 22 18 16 13 12 15 17 27 32 29 31 30 33 32 33 35 34 29 27 28
17 18 14 18 24 27 29 29 29 25 29 25 23 21 18 17 16 19 19 26 28 33 36 33 36 34 30 29 31 34 34 27
17 13 14 19 27 29 31 31 29 29 29 25 25 25 19 20 18 19 19 18 26 29 36 40 40 36 40 39 35 36 36 36
19 14 15 21 27 29 30 31 30 29 29 24 23 22 19 18 19 21 17 20 23 29 32 37 39 36 40 43 33 34 39 35
22 15 14 21 27 30 30 30 28 28 27 24 22 22 19 17 18 20 22 20 20 26 32 33 36 37 40 43 31 34 38 35
21 13 13 19 22 21 22 23 24 26 26 23 22 20 22 17 16 16 19 20 21 24 27 30 31 32 35 34 31 27 33 37
17 9 7 12 17 19 19 21 24 25 22 22 19 19 19 20 18 20 20 19 19 19 23 26 28 29 28 30 29 28 32 34
16 11 7 12 14 15 17 20 21 22 21 18 18 17 18 19 16 17 18 18 18 19 19 20 22 23 26 30 30 31 32 33
14 15 16 8 12 13 14 15 17 18 18 18 16 16 18 17 15 16 17 17 18 20 20 22 24 24 25 29 33 33 34 34
13 14 14 17 28 20 19 12 17 17 16 15 13 16 17 15 15 14 15 16 17 19 21 23 23 26 29 33 34 34 33 32
17 15 13 21 22 22 22 24 26 12 12 10 9 11 12 12 13 15 15 16 16 15 17 20 23 24 24 26 27 27 28 29
18 16 18 16 21 22 22 25 28 28 23 19 16 16 12 8 5 11 16 19 21 20 20 18 18 20 22 29 28 26 27 29
14 16 17 22 23 21 25 24 26 32 32 18 17 18 15 12 8 7 7 4 3 1 6 15 21 12 17 27 33 36 32 33
13 13 20 22 21 21 21 24 31 33 28 21 23 19 15 13 11 12 11 10 9 7 6 6 6 7 11 10 24 32 36 33

GFSFLT1_925_spd_096.txt.gz
Wind_Speed
18 17 16 16 18 22 25 28 26 28 22 22 22 19 22 15 15 17 19 23 25 29 29 29 39 40 38 37 29 27 25 23
25 24 20 19 19 21 27 30 28 31 27 26 22 19 21 17 16 16 19 24 30 29 30 36 39 40 43 42 29 28 24 24
18 23 22 18 19 23 27 32 29 30 27 24 17 18 16 17 16 18 17 19 24 31 35 41 41 39 40 37 30 27 24 25
18 19 21 20 20 24 28 32 29 29 26 23 16 14 11 16 16 14 20 20 20 23 32 38 39 40 38 36 32 28 25 25
15 17 18 22 22 20 25 28 29 28 29 25 23 20 15 17 15 18 14 22 21 25 27 32 37 36 33 34 32 29 28 26
13 14 19 21 19 20 23 26 29 28 30 26 23 19 14 15 15 14 17 21 23 25 27 27 30 29 30 32 30 29 27 27
15 15 15 18 18 22 25 28 29 29 29 27 24 19 16 17 17 16 20 22 25 25 27 27 30 28 32 31 30 26 24 23
16 16 14 13 19 24 26 29 30 29 29 28 25 20 18 18 19 16 21 21 24 28 32 33 32 33 33 36 36 34 31 27
17 18 17 15 19 24 26 29 28 29 30 28 24 20 18 17 19 18 17 18 24 27 30 34 34 34 34 35 36 37 34 32
17 21 17 15 18 24 27 26 26 26 26 27 25 22 19 17 19 17 17 15 20 26 27 32 35 37 35 36 37 36 27 31
19 21 22 10 15 20 21 23 23 24 24 24 24 22 19 17 17 18 17 15 19 22 24 28 32 36 39 35 35 36 27 27
18 20 29 2 10 16 18 21 22 25 24 22 23 22 20 18 18 18 17 17 17 17 22 26 29 31 33 33 30 29 28 27
18 19 22 16 7 13 15 18 20 22 22 21 20 21 22 18 17 15 16 16 17 21 19 27 26 29 31 30 28 27 33 30
20 19 17 16 20 7 12 14 17 20 21 19 19 19 19 19 19 16 16 17 17 18 19 21 23 29 29 30 29 30 33 32
18 18 16 19 18 19 23 15 16 15 16 14 13 15 15 17 16 16 16 16 15 16 17 18 20 22 24 24 25 26 26 29
18 16 15 19 21 21 20 29 28 16 17 13 6 11 12 12 13 14 15 15 16 14 15 15 16 16 18 23 23 23 25 27
13 13 17 17 22 21 22 29 26 23 27 24 20 17 15 12 8 8 9 9 10 13 14 14 15 14 18 22 22 23 25 26
11 9 12 17 21 23 27 27 26 24 23 22 22 23 19 17 13 13 11 11 10 9 6 6 8 3 3 17 25 28 22 22
12 11 11 22 27 26 22 21 25 22 22 23 20 25 22 19 18 19 16 12 12 12 13 11 9 13 8 3 11 16 20 25

GFSFLT1_925_spd_099.txt.gz
Wind_Speed
18 21 24 22 19 20 23 26 26 26 23 22 22 19 21 18 19 17 17 20 21 19 19 21 31 30 26 29 28 33 29 24
18 19 21 18 19 19 23 26 28 27 26 25 23 22 22 18 19 17 19 19 20 20 24 25 32 35 34 34 29 34 26 24
18 21 22 24 23 23 24 27 29 29 27 25 19 21 20 18 19 19 18 20 19 22 26 34 32 35 36 34 28 24 24 27
11 13 18 21 22 22 27 28 30 30 27 25 21 18 14 17 16 19 18 16 17 21 24 26 39 37 38 39 35 27 22 26
11 13 16 24 25 24 24 27 29 30 30 28 27 23 18 17 19 17 16 18 18 18 23 31 38 40 37 38 37 32 28 25
10 12 15 20 24 25 23 25 28 28 32 30 27 24 19 16 16 15 18 17 15 16 18 24 36 35 39 39 31 29 27 27
12 14 17 18 21 24 23 25 25 28 32 32 29 25 20 16 16 17 15 19 21 20 20 21 27 31 35 38 28 28 26 25
14 15 14 20 22 23 22 25 25 27 29 33 29 25 20 17 20 18 17 21 22 23 25 25 23 27 32 30 26 28 24 24
16 17 16 19 22 23 22 23 24 26 27 32 27 24 20 18 19 18 17 20 23 26 28 26 25 27 31 32 31 30 29 24
18 17 19 22 31 22 24 22 22 24 27 27 27 24 21 19 19 18 19 18 20 22 28 30 31 30 33 35 35 34 33 30
17 17 22 29 38 17 19 24 24 25 24 23 24 23 20 19 20 22 19 19 20 24 25 28 31 32 33 32 29 30 32 29
15 17 25 29 39 9 18 19 15 24 21 20 20 20 20 19 18 19 19 19 19 20 27 26 29 32 33 34 33 27 29 24
14 17 23 28 32 28 11 13 14 19 18 19 18 16 19 17 18 18 18 16 16 19 20 23 27 30 33 33 33 26 33 30
15 17 19 24 28 30 25 8 14 18 19 20 18 17 18 16 16 18 18 18 16 16 18 19 20 24 26 29 33 30 24 30
18 16 17 25 28 28 28 23 8 17 19 19 18 17 16 16 15 15 18 17 18 17 19 18 18 18 20 23 27 25 25 25
17 17 15 24 27 29 29 27 25 24 24 20 12 14 13 14 16 14 15 12 11 16 14 14 16 17 15 20 23 25 24 25
16 18 16 18 24 26 28 28 27 24 27 24 20 19 16 13 12 15 14 12 9 10 10 9 9 7 10 19 18 16 21 21
13 13 13 17 18 24 25 27 26 27 28 28 26 21 20 18 17 20 19 18 17 16 15 14 10 3 7 17 20 20 12 13
10 10 17 20 19 20 21 26 25 25 30 30 25 23 21 23 25 22 20 19 19 18 16 14 12 13 5 3 8 9 9 9

GFSFLT1_925_spd_102.txt.gz
Wind_Speed
20 24 26 21 24 24 38 35 30 30 27 21 21 19 23 20 18 21 21 21 21 22 23 24 24 26 29 26 26 29 33 32
14 16 26 21 19 19 26 31 30 29 29 27 24 22 23 24 20 19 20 20 20 22 19 21 24 30 33 33 27 29 27 32
7 11 17 17 15 18 15 28 31 31 28 28 22 22 22 23 22 20 21 21 21 23 22 21 27 30 30 30 29 24 20 34
12 5 7 9 8 17 27 24 32 31 27 24 19 22 17 23 23 23 23 22 19 20 22 24 27 35 33 34 32 30 24 31
6 6 7 13 16 20 17 23 23 33 35 29 28 25 21 20 21 20 21 22 17 19 21 24 28 37 37 35 36 31 26 26
9 9 13 17 18 20 22 25 27 31 37 33 31 25 24 20 21 22 24 20 20 21 20 24 27 36 34 35 35 33 29 28
9 13 19 21 24 26 25 20 27 31 34 32 31 29 23 22 23 20 19 20 18 17 16 15 23 33 35 38 38 36 34 30
12 14 14 22 27 29 29 23 24 30 30 29 27 29 24 24 25 20 21 22 22 20 15 14 22 30 31 34 36 36 35 33
12 14 14 21 26 32 32 34 23 26 26 23 26 26 25 20 25 21 21 23 22 23 19 18 23 27 30 27 26 32 34 32
15 15 18 22 25 31 34 36 18 26 22 23 22 27 26 21 24 22 22 23 23 23 23 23 22 26 30 31 24 29 28 29
15 15 20 24 26 30 41 25 22 24 24 24 21 25 23 20 24 22 21 21 22 25 24 27 26 25 28 30 29 27 30 27
15 15 21 24 26 29 36 7 16 17 21 24 18 20 21 17 23 21 22 23 24 23 23 28 30 28 29 30 29 31 31 29
16 15 20 23 28 32 31 33 3 17 18 20 18 7 20 18 22 21 23 24 22 23 25 25 27 29 31 31 30 30 32 30
16 17 15 20 27 30 33 34 31 2 18 20 22 11 14 19 18 21 23 22 21 21 23 24 25 28 30 32 31 31 33 33
15 15 15 21 25 29 31 32 34 33 10 18 18 17 13 17 16 17 22 21 22 22 22 22 22 24 26 30 30 29 28 29
15 15 14 19 24 29 31 32 34 31 25 25 21 7 16 13 14 17 19 20 18 21 23 21 20 20 19 21 24 26 26 24
15 15 14 20 22 26 29 30 30 30 30 29 29 24 19 12 6 1 18 16 16 18 23 25 21 16 18 22 21 21 23 20
11 13 15 19 21 22 25 28 28 29 31 32 32 30 29 25 16 14 17 17 16 20 21 19 16 9 8 14 22 15 10 13
9 12 19 23 23 27 25 28 29 28 30 31 31 32 31 30 28 25 22 20 21 20 19 17 16 15 8 5 8 12 11 9

GFSFLT1_925_spd_105.txt.gz
Wind_Speed
21 31 34 38 37 43 43 42 41 39 39 27 27 28 27 23 28 28 26 26 29 31 28 26 25 23 27 28 27 28 30 30
24 27 37 33 28 38 40 38 37 37 38 30 29 30 31 30 22 28 27 25 25 27 29 29 28 27 29 30 28 29 26 29
15 14 21 21 17 30 36 39 40 39 39 31 30 27 27 26 23 20 27 26 26 27 27 28 28 28 31 33 32 23 19 31
8 9 15 17 16 10 24 41 44 42 39 36 25 24 19 23 27 26 22 26 26 26 28 29 28 29 30 33 34 31 25 29
14 14 13 23 25 28 22 26 30 32 36 33 36 30 22 24 25 28 29 28 27 29 29 29 28 30 29 35 34 34 27 28
17 16 19 23 26 24 26 22 14 37 37 36 34 27 28 25 26 28 29 26 31 28 27 27 28 29 31 34 34 33 37 32
17 21 27 28 32 32 28 26 25 11 40 38 37 31 28 25 29 30 30 28 28 25 26 27 29 29 31 35 36 36 34 32
18 20 18 28 29 32 32 28 30 26 28 36 37 36 32 33 33 31 27 28 26 28 24 27 27 28 29 32 33 32 33 35
18 17 19 25 28 30 34 34 31 28 18 30 34 32 32 32 34 31 30 29 26 25 25 24 22 21 28 31 33 31 34 35
16 17 23 26 28 30 32 36 36 28 24 30 32 29 33 30 33 34 32 28 26 24 26 22 17 17 21 26 27 36 31 32
19 17 22 23 24 26 30 32 34 18 25 31 30 26 29 30 33 32 28 26 24 25 27 23 20 20 22 25 24 31 37 33
15 15 22 22 22 23 27 29 30 12 20 25 19 19 17 28 33 31 29 24 24 27 28 25 24 23 22 26 24 29 31 30
15 16 21 23 23 25 29 30 31 28 11 14 18 14 16 28 31 28 25 24 23 27 28 25 26 25 24 26 27 25 27 30
14 14 17 23 26 27 28 33 33 33 26 8 11 8 15 25 29 26 23 23 25 25 24 26 28 28 26 27 27 30 27 29
15 15 15 25 27 26 27 28 32 33 31 25 16 3 11 23 26 24 23 24 25 24 23 25 26 27 30 31 29 30 30 29
15 15 14 23 27 30 27 29 32 32 32 32 27 19 10 15 14 19 21 21 20 21 22 21 21 22 22 27 28 28 30 28
15 16 18 20 24 26 29 27 30 33 31 32 30 25 21 18 17 20 17 17 15 18 19 17 18 17 20 24 24 25 25 23
11 11 15 20 22 24 26 30 27 33 35 33 30 26 26 25 24 24 24 21 18 19 17 14 9 9 15 21 21 18 17 15
6 12 16 19 22 26 25 28 30 28 35 36 34 26 26 29 30 28 30 29 26 26 22 21 18 14 7 11 18 17 16 12

GFSFLT1_925_spd_111.txt.gz
Wind_Speed
19 27 40 42 40 36 40 42 41 40 35 33 32 32 33 34 34 34 33 33 33 33 33 33 34 34 32 31 29 26 22 19
18 16 4 17 34 40 39 37 37 35 33 31 29 34 37 37 38 36 35 33 34 34 34 34 34 35 34 32 29 22 21 23
10 16 20 21 11 18 22 28 37 40 37 39 28 31 29 30 34 36 37 35 34 35 35 34 35 34 33 28 28 22 20 22
11 12 16 21 25 20 3 22 26 28 25 21 18 24 18 23 32 37 39 38 35 34 36 36 35 35 33 29 31 26 19 22
12 11 11 21 23 23 18 8 16 21 22 26 28 29 22 27 25 27 34 38 37 35 37 36 36 36 32 33 33 32 25 20
13 12 15 22 26 23 20 16 13 10 20 25 26 22 24 21 22 29 32 35 37 37 36 36 37 36 34 31 30 31 31 24
14 15 15 21 22 24 22 18 13 8 2 14 25 24 24 27 28 28 32 35 36 36 36 36 34 34 33 30 33 32 32 30
14 13 13 20 22 23 21 22 18 14 8 5 10 24 25 28 31 31 27 30 36 37 36 36 36 35 34 32 32 32 31 32
14 16 15 20 22 24 25 24 21 19 15 11 11 17 25 28 27 29 32 32 34 35 38 37 37 35 35 31 29 32 31 32
16 15 18 21 22 23 23 24 24 25 21 18 16 21 24 30 32 34 36 35 36 34 35 37 36 34 33 29 29 28 29 28
15 16 21 23 22 22 23 22 18 18 22 21 23 19 25 29 30 32 34 34 34 33 35 35 33 32 30 28 28 28 26 28
16 17 24 27 29 29 26 27 26 26 27 26 22 14 16 27 29 31 35 35 35 34 36 34 33 32 29 27 27 25 25 24
16 17 23 28 30 29 28 29 26 27 25 27 27 20 14 18 26 29 32 33 34 36 35 34 34 30 26 26 24 24 23 24
14 12 16 24 26 28 29 31 32 30 29 28 26 27 22 17 9 22 27 29 31 32 31 32 31 27 26 24 22 23 23 24
14 15 14 21 24 27 28 29 31 30 28 29 30 31 27 21 17 9 21 26 29 31 30 29 26 24 25 24 20 21 21 22
15 16 15 22 24 27 29 30 30 30 30 32 30 27 26 25 24 18 11 14 28 31 26 24 23 24 22 23 24 22 22 19
13 14 17 20 24 25 26 27 29 28 30 31 31 28 28 31 29 27 23 19 11 12 20 19 19 19 21 22 23 23 23 23
14 14 18 22 23 25 25 26 28 31 31 32 33 31 30 30 32 35 31 33 26 22 16 10 9 7 13 18 20 21 19 19
11 15 18 22 23 25 23 25 28 29 31 31 31 31 31 30 32 34 34 33 30 34 28 22 14 11 4 9 16 15 14 11

GFSFLT1_925_spd_117.txt.gz
Wind_Speed
26 30 31 30 31 32 35 36 41 40 30 25 22 23 23 24 27 29 32 34 32 29 27 26 26 25 24 24 20 18 15 14
28 18 15 18 20 26 32 32 32 32 30 29 25 22 20 23 23 24 29 32 33 32 29 27 26 26 26 24 24 20 14 12
18 6 4 6 5 6 27 33 34 35 34 30 23 27 23 23 24 24 28 29 33 33 32 29 28 26 25 25 25 16 15 19
2 7 9 9 9 8 3 24 32 34 30 27 20 21 15 21 26 29 31 30 32 33 33 32 30 28 26 27 27 23 16 21
9 9 12 13 12 10 7 5 23 27 31 30 29 26 20 25 24 26 27 30 31 31 33 34 32 32 28 29 28 26 20 16
11 11 13 15 14 13 12 9 12 16 23 25 26 22 21 18 20 23 29 28 34 33 35 34 33 31 29 30 30 31 29 21
11 16 17 19 19 19 17 15 16 11 9 13 19 24 20 21 24 25 28 30 35 38 37 37 35 31 28 28 30 31 30 28
14 15 16 22 24 23 19 18 18 15 10 6 5 10 16 26 25 25 25 27 30 37 40 38 37 36 33 30 29 30 31 29
15 15 18 22 24 25 23 22 21 19 15 10 4 3 7 9 17 24 25 26 29 26 31 33 35 34 36 33 33 35 33 33
17 16 20 21 23 26 25 24 23 22 19 15 11 6 7 10 15 12 25 26 25 30 32 35 37 34 36 34 32 32 33 34
15 14 20 22 23 24 27 27 24 22 22 19 15 12 10 10 13 17 13 25 25 25 30 32 31 32 34 34 30 31 32 32
15 14 20 22 25 28 28 28 28 27 25 23 19 17 15 12 9 4 10 21 25 26 26 27 29 30 33 33 30 29 32 30
14 14 20 22 27 29 30 30 29 28 26 24 23 23 20 19 18 12 7 6 19 22 24 24 29 30 30 32 32 29 30 29
15 15 15 25 24 27 28 29 28 26 25 27 29 30 29 27 25 21 16 10 3 11 19 24 27 29 30 32 32 31 32 31
14 14 20 27 26 30 28 30 30 25 27 30 30 29 27 26 25 26 23 19 14 10 3 12 19 21 24 27 31 32 32 31
18 19 17 24 27 27 26 33 26 27 31 30 30 29 28 30 31 29 25 26 25 20 13 12 9 5 3 13 19 30 29 27
18 18 24 27 28 27 29 29 29 25 29 30 28 30 32 31 32 30 31 30 29 29 28 25 24 21 20 10 17 14 21 25
17 17 22 24 29 28 27 26 29 31 29 28 30 30 30 30 30 32 33 31 32 32 32 30 30 28 25 17 8 7 3 8
14 18 21 24 24 29 27 27 27 28 28 28 28 28 26 26 28 29 30 30 29 32 35 33 31 33 26 20 12 10 12 16

GFSFLT1_925_spd_120.txt.gz
Wind_Speed
31 37 36 29 35 28 27 29 32 34 33 31 27 24 24 24 25 23 23 30 30 26 25 22 27 22 18 21 16 18 17 16
29 35 34 31 31 29 31 29 31 33 35 33 30 29 27 26 26 24 22 27 31 29 25 26 28 24 23 25 19 18 17 15
21 26 31 16 21 26 24 27 33 34 35 35 31 30 27 25 24 24 24 24 31 29 29 27 28 24 23 23 26 17 17 18
18 16 16 16 15 17 22 22 33 34 34 32 29 25 22 23 25 26 27 25 25 29 28 27 27 26 25 25 31 22 18 19
13 12 15 15 15 14 17 17 16 29 34 34 35 34 30 28 28 27 24 27 25 26 26 30 31 31 26 28 28 28 21 16
14 13 16 17 17 14 13 12 1 16 33 36 34 28 24 20 21 24 25 26 27 27 26 27 28 30 29 28 29 30 28 22
15 17 16 19 21 16 16 10 13 11 9 17 30 27 19 19 20 21 23 23 28 31 29 30 31 28 28 29 30 29 31 28
14 16 15 20 21 21 19 18 19 19 14 14 15 27 16 18 16 17 15 21 26 34 32 30 32 31 27 28 31 28 29 28
18 15 18 20 21 21 25 23 24 21 18 14 18 15 9 4 4 7 16 19 22 24 32 29 28 27 28 28 29 28 28 30
19 16 22 21 22 24 28 24 23 25 23 21 20 19 13 8 5 7 8 16 21 24 26 31 33 34 31 28 30 30 28 29
21 16 24 24 24 25 27 19 26 25 26 17 22 20 17 13 9 7 9 11 10 20 25 25 28 30 31 31 29 28 28 28
19 19 25 24 25 26 25 27 31 30 27 26 23 20 20 17 14 12 9 9 11 19 21 24 26 26 26 27 28 31 34 30
17 21 26 29 30 30 32 33 33 30 27 28 30 28 24 20 20 17 14 9 7 7 18 19 23 24 23 27 31 30 28 28
18 20 23 27 30 30 30 32 30 30 32 29 29 29 26 24 21 21 18 16 12 8 1 4 11 17 22 27 30 29 31 31
17 17 21 28 29 27 29 30 29 27 28 29 31 30 28 26 25 25 26 21 20 18 16 11 9 6 5 11 15 25 30 31
17 18 18 26 30 31 32 32 31 30 31 31 30 29 27 27 29 29 29 29 24 21 21 21 18 17 17 14 15 17 18 26
19 19 25 27 29 29 29 31 32 29 28 28 28 29 28 29 28 27 28 30 29 28 26 29 28 25 21 16 11 11 14 12
16 16 22 25 27 30 30 28 25 25 26 27 29 28 27 29 28 29 31 29 29 30 30 30 29 32 24 22 16 9 5 5
15 19 21 24 25 25 26 26 28 29 30 30 27 27 27 26 26 28 28 28 29 29 31 27 30 37 27 21 22 18 19 18

GFSFLT1_925_spd_123.txt.gz
Wind_Speed
35 37 33 32 32 31 31 32 29 30 33 32 32 29 28 27 29 28 29 34 32 30 24 25 26 21 25 21 18 18 17 16
35 37 37 34 29 33 33 35 27 25 26 31 32 30 30 30 31 29 25 35 35 32 27 25 28 25 24 24 20 19 17 15
27 33 37 30 32 25 24 24 25 33 34 34 35 32 31 31 31 31 29 30 38 33 30 28 29 24 24 25 24 18 18 19
21 24 29 33 28 28 25 29 29 35 39 35 36 32 32 31 31 30 32 27 34 33 33 30 31 27 28 24 25 23 20 19
19 22 26 27 27 26 28 30 31 37 38 35 39 35 30 30 29 31 30 32 30 35 32 31 31 29 26 26 25 25 22 17
20 20 28 27 24 23 24 26 28 29 31 42 38 39 32 32 29 30 29 31 29 30 32 32 32 31 29 26 26 27 27 21
18 26 28 27 27 23 25 24 13 15 18 24 32 37 31 27 29 27 27 25 28 29 29 32 32 31 31 29 28 28 26 26
19 21 24 28 28 24 24 19 12 17 18 16 2 30 33 26 19 22 23 20 23 24 26 27 31 31 28 27 29 28 29 26
19 18 23 28 26 24 21 17 14 24 21 24 24 18 8 11 20 14 14 17 17 19 21 22 25 26 26 26 26 26 26 27
18 23 26 26 25 27 21 17 16 23 26 25 27 24 18 12 23 9 4 7 4 22 22 25 25 24 25 27 27 25 24 28
18 20 26 27 27 24 22 19 26 28 29 25 25 25 24 23 13 11 12 6 5 1 14 16 21 24 27 27 28 27 27 29
16 20 27 25 29 29 28 29 32 33 28 21 23 23 23 27 26 20 13 11 8 6 4 12 14 19 22 24 24 25 27 29
14 21 25 31 33 33 35 35 35 33 31 33 33 29 39 38 22 19 18 16 14 10 9 2 5 12 14 20 24 25 26 26
16 20 24 28 32 33 33 31 40 42 35 32 32 34 29 25 27 23 25 23 24 23 20 17 14 13 8 4 4 14 27 28
16 16 22 27 31 31 31 33 33 27 21 23 27 31 30 33 30 30 33 33 33 32 29 25 23 22 19 14 11 11 12 13
18 17 18 27 31 33 32 34 31 29 29 30 34 34 37 36 33 34 36 37 35 32 30 33 31 30 28 23 15 14 13 17
18 19 26 27 30 31 30 31 32 31 33 36 35 38 36 35 37 37 37 33 33 33 33 32 35 33 27 25 20 16 15 16
15 16 21 24 26 29 31 30 31 33 34 34 37 38 35 33 28 30 32 33 31 33 33 31 32 38 31 27 26 22 21 21
12 13 17 20 23 24 26 30 31 33 34 34 34 30 27 25 27 30 29 28 29 30 30 31 31 39 36 29 24 22 24 24

GFSFLT1_925_spd_126.txt.gz
Wind_Speed
30 37 39 40 39 40 39 40 27 24 29 30 34 35 36 30 29 35 33 38 37 39 29 27 28 28 30 27 25 22 21 23
27 29 35 38 39 38 37 37 37 29 27 24 27 30 36 34 32 33 37 41 42 39 36 22 25 24 24 27 25 24 21 19
25 28 31 33 37 36 35 36 38 37 30 24 21 27 35 39 32 35 39 42 42 40 36 32 32 25 25 26 26 21 19 22
21 27 27 31 33 37 33 35 37 38 37 32 30 30 35 38 35 34 38 42 40 42 39 35 32 33 30 30 31 24 19 24
20 24 27 29 31 32 34 31 36 35 33 35 27 23 23 37 37 36 35 42 41 41 40 36 33 32 30 29 30 30 23 19
19 23 30 30 28 30 32 29 31 33 34 33 30 29 31 36 41 37 35 39 40 39 38 37 35 33 33 31 29 30 30 22
18 26 29 27 27 30 31 30 29 28 28 33 31 35 37 36 47 37 38 35 38 39 40 36 35 32 31 33 30 30 28 27
17 19 24 26 28 31 30 29 28 25 27 32 22 28 24 36 49 40 38 36 33 36 39 33 33 32 30 29 29 31 30 28
17 20 24 26 30 32 34 31 28 26 24 24 5 3 20 2 15 23 26 27 25 29 34 36 32 32 30 30 29 29 29 29
17 22 25 30 34 39 38 32 26 23 21 15 20 27 17 22 28 23 23 29 16 16 16 24 28 31 32 32 31 31 30 31
17 21 27 33 35 37 38 33 23 22 16 15 27 34 29 25 12 35 26 21 21 16 12 10 14 16 20 26 28 28 31 32
16 21 27 26 35 33 34 29 23 22 18 27 41 39 35 33 33 32 26 25 26 20 19 16 8 2 10 20 25 28 30 28
14 21 25 25 29 27 29 29 28 26 26 43 45 39 32 30 38 36 32 32 30 26 23 21 18 15 9 2 3 9 19 24
14 19 24 26 28 29 31 36 32 33 37 43 49 46 40 42 35 39 39 38 34 28 27 28 25 23 18 13 10 8 5 4
13 14 21 27 29 32 31 33 36 40 38 39 45 42 41 33 37 40 42 41 39 34 31 30 30 28 25 19 15 13 11 10
15 15 19 27 29 33 34 38 38 38 42 43 43 41 38 41 46 45 39 44 39 36 38 37 34 33 30 25 21 19 19 17
17 16 21 23 26 29 30 31 35 34 35 32 30 36 31 29 31 31 28 33 36 35 31 32 34 35 31 30 27 24 24 24
9 9 14 19 23 28 28 26 27 30 31 35 36 32 26 28 28 28 30 35 30 29 30 30 33 38 32 32 29 29 28 28
9 9 13 14 18 19 22 25 26 29 36 34 34 29 29 27 27 30 30 27 27 29 32 33 35 39 38 30 26 27 28 30

GFSFLT1_925_spd_129.txt.gz
Wind_Speed
26 29 32 36 38 35 32 35 37 38 39 35 27 26 27 36 36 38 39 40 40 35 37 34 33 32 35 33 31 28 26 24
23 26 30 31 34 36 36 35 36 34 33 33 31 27 26 30 38 37 41 42 39 42 38 33 36 39 38 36 34 30 26 23
23 27 27 29 33 35 35 33 34 35 30 30 28 30 26 28 27 36 41 42 46 45 41 39 36 40 40 38 36 27 28 27
17 24 29 32 34 36 36 35 34 35 33 31 30 31 27 21 27 29 38 43 46 50 43 43 34 40 40 40 37 32 23 29
16 26 32 34 33 34 35 36 33 32 32 28 26 26 24 23 24 30 29 40 45 45 44 43 43 39 37 40 38 32 27 23
19 24 30 33 33 34 35 34 31 30 31 28 27 26 24 27 27 28 36 32 44 48 49 46 42 37 32 35 34 33 33 26
20 26 29 30 34 34 35 35 34 32 28 28 28 29 28 28 26 27 27 24 35 47 49 46 45 39 38 35 36 35 35 29
15 18 27 30 32 33 33 34 34 33 31 27 27 30 23 25 29 30 25 21 41 54 48 45 45 42 38 37 33 34 35 33
14 21 27 30 29 31 33 34 34 32 29 26 21 17 17 23 25 24 23 13 31 44 48 44 42 40 36 36 33 31 32 32
14 23 28 31 30 31 34 36 36 33 29 24 17 16 8 4 7 5 12 14 23 36 42 35 35 35 35 35 30 30 31 32
14 21 28 29 31 31 43 39 38 35 28 25 20 17 13 16 15 12 11 7 9 33 24 20 23 28 31 31 30 28 29 30
13 21 29 30 32 37 43 43 42 39 32 27 22 15 28 29 32 31 28 23 15 7 24 31 27 20 19 19 15 18 29 29
11 20 26 29 32 35 35 41 42 40 32 25 19 22 35 39 40 40 37 27 33 36 33 35 31 20 24 20 14 12 16 17
10 18 22 27 30 30 31 33 33 33 28 28 19 35 46 45 42 46 50 40 36 39 35 38 37 29 34 23 19 18 16 15
12 14 20 25 28 30 31 33 34 32 29 31 39 38 39 42 44 46 53 46 48 46 43 40 39 38 36 31 28 24 22 21
12 12 18 25 29 31 32 36 36 34 36 40 39 36 36 41 53 49 44 45 44 37 41 45 46 44 41 32 29 27 26 26
10 11 16 20 24 27 28 32 35 35 36 37 37 39 40 42 40 52 48 42 39 39 40 42 43 40 34 37 35 35 31 31
5 6 11 17 22 21 24 27 30 35 35 35 34 35 35 38 45 44 38 36 31 32 37 41 40 40 36 34 33 31 31 32
5 16 13 20 25 24 23 24 25 29 33 34 34 34 37 38 37 38 37 34 36 36 40 39 40 43 43 36 32 32 31 31